GFSNGP_sfc_wetblb_000.txt.gz
Wetbulb
45.50 49.09 49.68 49.43 48.85 48.42 45.19 45.71 44.49 45.10 46.99 49.90 52.91 54.75 55.83 57.34 58.61 58.92 58.98 61.17 62.29 64.08 65.03 66.70 67.71 68.70 69.78 70.19 69.83 68.66 67.74 66.72 64.81 64.32 63.12 62.67 63.19 63.12 62.91 62.83 62.46 62.13 62.66 62.70
46.18 48.75 49.37 47.75 50.30 50.82 50.73 49.59 48.36 47.63 48.22 53.36 55.50 57.18 55.88 57.65 57.99 57.80 59.38 63.32 62.19 64.24 66.10 67.23 67.91 68.37 68.66 69.06 68.88 68.25 67.01 66.39 65.69 64.97 63.92 63.60 64.29 63.71 62.92 62.64 62.07 62.18 62.53 62.42
41.22 47.12 48.50 45.89 48.36 49.13 50.07 52.30 50.00 45.22 49.01 52.90 53.31 55.29 54.88 55.10 55.83 56.20 57.72 59.74 63.70 64.74 65.46 68.13 69.00 68.80 67.47 67.73 67.78 66.63 66.02 65.54 65.14 65.14 64.43 64.59 64.65 63.33 62.99 62.74 61.78 61.98 62.31 60.92
41.82 42.04 38.88 46.93 52.83 54.77 53.00 53.38 53.35 51.62 52.83 54.25 55.40 55.61 55.15 55.09 55.73 56.66 57.39 57.44 58.66 62.99 65.55 68.57 70.33 69.10 67.17 65.63 66.13 65.79 65.08 64.99 65.70 65.63 64.92 64.84 63.78 63.24 63.16 62.91 62.76 62.38 61.07 61.98
39.69 38.63 42.79 48.81 51.90 52.49 51.23 51.09 55.06 53.23 54.96 55.19 55.69 56.37 54.59 55.83 56.63 57.10 57.01 57.83 59.47 60.47 63.73 66.31 69.11 68.66 65.73 65.14 65.48 65.08 64.41 64.54 65.28 65.57 64.99 63.91 63.02 62.89 63.71 62.85 62.01 62.06 62.67 62.46
44.47 40.25 38.19 44.91 53.99 56.23 54.18 46.24 55.29 55.36 54.66 54.17 55.00 50.68 52.97 57.04 57.96 58.68 60.39 60.96 61.62 62.43 66.86 66.06 67.00 66.05 65.31 64.37 64.16 64.00 64.54 64.99 65.57 65.40 64.59 63.73 63.67 63.93 64.74 63.49 62.63 63.93 62.97 62.35
42.31 41.02 43.85 51.69 55.52 56.14 44.51 46.05 54.95 55.38 54.40 53.81 54.06 54.52 56.24 56.72 58.42 59.53 61.62 62.89 63.42 67.23 67.67 65.95 65.51 65.85 63.98 63.59 63.78 64.69 65.21 64.79 64.61 65.64 65.08 64.71 64.89 64.90 64.06 62.94 60.47 59.98 60.76 60.60
44.02 41.52 39.29 55.29 54.87 50.98 51.72 53.64 55.77 56.25 56.79 56.70 56.04 57.02 57.89 58.33 57.32 57.59 57.42 60.97 63.05 66.12 66.51 65.97 65.70 65.85 63.86 62.85 63.56 64.10 63.20 62.65 61.83 59.80 64.50 66.54 65.28 64.02 62.37 61.18 60.06 59.17 59.49 58.32
48.70 47.21 52.72 54.84 53.76 53.96 54.53 53.65 55.46 55.71 56.80 56.90 57.26 57.84 59.85 58.56 58.25 57.76 58.81 60.12 62.25 64.14 65.49 64.88 65.32 63.59 60.73 60.44 62.46 62.77 61.61 61.87 59.92 60.90 60.47 61.31 64.17 63.14 61.39 59.75 58.26 57.94 57.95 56.36
50.13 53.06 54.80 55.71 55.54 56.16 56.33 55.88 56.38 57.45 57.88 57.75 56.53 58.96 58.95 58.94 61.47 62.67 62.51 60.83 64.36 62.90 61.61 60.39 62.27 62.08 62.11 63.97 62.80 61.15 60.59 60.67 60.30 59.39 59.32 61.98 62.90 62.03 60.53 58.95 57.16 56.72 55.72 54.04
51.20 54.05 54.06 54.80 55.03 55.64 56.87 57.58 57.20 57.35 57.73 57.55 59.53 62.70 63.70 62.78 62.11 61.32 60.65 60.63 61.46 62.24 61.05 59.96 61.48 61.76 62.50 61.93 61.08 60.35 60.47 60.97 60.53 61.20 61.98 59.32 55.23 54.47 55.82 49.97 52.30 53.41 52.01 52.48
48.40 52.90 52.15 52.35 54.54 55.88 53.57 54.05 54.71 54.07 54.43 56.29 58.34 62.33 64.45 62.72 61.46 59.99 59.55 60.01 60.82 61.71 61.56 59.78 59.76 59.50 59.87 61.07 60.05 58.24 56.98 59.70 59.68 61.44 58.75 54.47 51.97 49.62 45.86 44.63 43.29 43.08 45.84 46.67
52.85 54.46 54.05 55.01 54.69 53.71 52.93 53.36 54.12 52.59 52.21 51.56 53.07 54.92 57.63 61.87 60.87 59.41 59.76 59.79 60.74 60.96 60.69 60.72 60.30 59.81 61.25 61.16 60.52 59.39 60.92 60.60 59.45 58.57 57.83 53.26 51.07 50.97 49.56 48.60 45.57 43.06 42.08 43.50
54.64 51.09 47.98 49.78 48.38 52.42 54.26 55.09 54.33 53.82 53.18 52.92 52.52 52.27 52.55 53.84 60.16 60.39 60.68 60.98 60.93 60.15 59.27 58.94 58.84 60.50 60.24 59.07 59.75 60.69 59.30 55.57 56.82 56.92 57.24 53.97 52.12 50.77 49.69 48.48 47.21 46.91 44.50 43.95
50.16 50.39 48.95 50.10 50.82 50.90 52.23 52.62 51.17 50.55 50.92 51.86 53.01 52.27 52.59 51.98 53.98 58.92 59.69 59.87 60.91 60.39 59.67 60.08 60.41 59.91 60.77 60.64 59.80 58.64 59.12 57.01 57.11 57.08 57.12 56.04 55.38 54.47 52.89 51.22 50.00 48.30 46.49 45.31
49.40 49.35 49.51 48.69 48.55 49.39 50.06 50.04 48.50 48.31 48.86 49.04 50.18 51.80 53.39 53.71 55.27 58.20 59.24 59.92 59.12 59.17 60.33 59.76 58.69 58.82 60.12 60.56 59.10 58.03 56.82 56.08 56.24 54.93 54.70 53.64 52.39 51.95 51.44 50.70 49.51 47.07 46.51 45.61
47.69 46.85 47.45 47.14 47.88 49.12 49.12 49.62 49.36 49.09 49.38 49.77 49.62 50.77 52.17 55.34 57.21 57.20 56.56 57.54 58.56 59.11 56.68 56.04 55.35 56.41 57.82 59.16 58.07 57.17 57.05 54.89 56.71 54.85 54.42 53.24 52.35 52.15 51.18 49.45 48.26 46.42 45.60 45.76
49.63 48.34 47.84 47.31 48.31 48.33 48.94 49.84 49.90 49.27 49.19 51.03 51.09 50.82 53.49 56.82 55.52 55.58 55.58 57.06 55.86 54.57 53.73 54.28 56.22 56.34 58.68 58.58 57.13 55.40 54.32 54.40 56.09 54.85 53.54 52.83 52.09 51.09 50.26 50.53 48.20 46.19 44.16 45.05
51.80 50.56 50.87 51.44 50.76 50.04 49.37 49.74 51.25 51.25 51.01 52.11 51.41 50.35 56.48 56.16 56.94 56.60 54.63 55.04 54.94 54.08 55.09 56.40 59.73 56.86 55.13 56.66 54.32 54.06 53.81 54.11 53.56 53.02 51.79 51.27 51.32 52.17 53.27 51.57 49.00 48.25 46.18 45.34
52.42 52.71 52.59 53.06 53.19 52.03 51.49 52.35 52.77 53.46 53.08 55.23 54.28 54.79 54.12 54.87 55.10 54.94 54.12 53.31 53.81 54.62 56.44 56.30 56.36 56.14 54.28 54.61 53.73 51.15 51.46 50.85 50.30 49.46 49.37 48.41 48.70 48.90 48.70 49.00 50.79 49.02 47.04 45.94
51.99 52.78 53.49 53.49 53.07 53.62 53.64 53.27 53.82 52.44 50.74 52.93 51.39 51.76 53.22 54.41 55.90 54.35 53.97 53.44 54.66 55.61 55.73 56.22 54.59 51.85 50.69 50.64 50.36 49.38 49.15 49.02 48.86 48.41 48.29 47.71 47.69 48.00 46.67 45.77 46.21 47.55 47.55 45.36
52.24 52.43 52.76 52.71 52.22 51.79 52.28 51.60 52.31 51.79 49.75 52.24 51.13 51.66 51.81 51.92 55.84 55.45 54.48 53.27 52.87 53.21 53.25 52.65 52.36 53.40 51.75 53.75 48.20 47.27 46.41 46.87 48.09 48.02 47.77 47.03 46.37 45.95 45.86 45.10 44.99 43.38 42.91 43.56
50.16 51.60 51.69 51.56 50.55 50.33 51.71 52.18 51.78 52.38 52.46 52.80 52.63 52.74 52.39 53.13 53.81 52.35 51.29 52.46 52.36 52.43 52.12 50.94 51.60 53.64 52.89 48.27 48.38 44.53 44.00 44.02 44.52 46.69 46.33 46.06 46.41 45.38 42.64 42.07 43.18 42.70 41.20 40.67
49.93 50.62 50.43 51.12 51.70 51.08 48.82 50.47 52.02 52.40 52.22 52.58 52.86 51.44 51.66 51.78 51.04 52.65 52.61 52.13 50.77 50.30 49.99 49.00 50.44 51.44 49.49 44.69 43.60 42.88 42.21 42.05 40.39 40.87 40.55 40.93 41.48 41.29 41.13 41.31 41.61 41.26 40.16 39.38
49.12 49.45 50.07 48.29 47.77 48.86 48.95 50.59 50.92 52.83 53.41 51.77 53.41 52.46 50.88 50.37 49.78 49.51 51.53 51.99 50.49 49.88 48.53 49.27 49.83 49.09 43.50 43.24 42.68 42.06 42.00 40.35 40.11 39.83 39.63 39.63 40.46 39.93 40.09 41.16 41.02 40.11 38.98 38.68
48.74 48.13 48.52 48.97 47.89 47.74 48.29 49.88 49.47 49.98 51.93 51.70 51.66 51.23 50.43 48.43 48.99 49.32 49.09 49.42 50.62 48.69 46.83 45.93 45.00 44.00 42.64 42.57 42.48 42.87 42.34 41.24 39.08 38.90 39.31 39.23 39.33 39.81 39.84 39.95 41.13 40.64 39.58 38.37
47.80 46.24 45.89 47.00 48.17 49.74 50.07 49.26 48.69 47.95 48.38 48.72 48.93 51.30 51.01 52.69 52.07 51.30 48.93 48.91 47.59 46.93 45.83 44.41 43.71 44.58 42.25 42.37 42.56 42.98 42.51 42.04 40.94 40.76 39.56 38.82 38.39 38.27 38.69 39.48 39.52 39.33 38.52 38.66

GFSNGP_sfc_wetblb_003.txt.gz
Wetbulb
45.67 46.22 46.28 46.41 46.48 46.47 44.49 44.73 44.11 44.36 45.39 49.79 52.39 53.61 55.17 56.44 56.15 56.85 58.16 58.71 60.28 62.14 63.31 64.44 65.10 67.12 68.70 70.11 70.58 69.80 68.66 67.45 66.02 65.48 65.13 64.73 63.99 63.03 62.15 61.75 61.97 60.25 60.10 59.67
41.80 45.49 46.24 45.54 47.77 48.58 48.86 45.31 45.10 44.97 45.25 50.58 55.08 54.00 54.32 55.95 56.26 56.55 57.27 59.01 59.58 61.72 62.82 63.02 64.44 66.39 68.02 69.41 70.19 70.02 68.94 68.01 66.49 64.59 63.83 63.19 63.16 62.64 61.64 62.62 61.80 60.35 59.97 60.14
41.78 43.74 46.07 42.20 46.32 48.07 48.99 49.68 48.39 44.56 47.87 50.88 51.37 54.34 55.03 55.53 57.00 57.65 58.09 60.21 58.51 59.88 61.00 62.74 64.25 66.66 67.11 68.82 70.08 69.49 69.20 67.73 65.88 65.44 63.84 62.85 63.08 62.03 61.92 62.13 61.48 59.97 60.03 60.25
42.35 42.06 38.74 44.20 50.76 52.11 51.58 53.33 51.89 51.55 49.77 51.62 53.34 56.77 57.04 55.15 56.44 56.13 57.91 59.40 61.73 61.37 61.34 63.87 65.38 66.46 66.98 68.22 68.82 68.57 67.94 66.99 66.41 65.43 64.48 63.38 61.64 61.97 62.57 62.32 61.48 60.73 60.41 60.27
38.72 38.58 44.45 48.38 51.58 50.92 50.82 49.32 53.18 51.48 53.17 54.04 53.98 54.25 52.94 55.26 55.44 56.99 56.77 56.90 58.81 63.15 64.16 63.45 65.39 67.24 66.86 66.67 67.50 67.39 66.24 65.84 66.14 66.01 64.64 63.12 62.89 63.53 63.67 61.74 60.98 61.31 60.56 60.48
39.17 38.42 39.06 47.12 52.59 55.57 52.82 46.56 54.31 54.48 53.18 52.93 53.01 50.91 50.76 55.97 55.78 55.63 55.91 58.34 58.95 60.11 62.92 63.35 63.92 66.73 65.31 64.73 65.50 65.59 66.18 65.98 66.44 66.09 64.88 63.40 63.71 63.77 63.69 62.71 61.89 61.58 61.62 59.68
41.70 40.66 44.04 51.23 53.38 55.12 45.62 45.13 54.21 53.19 52.76 53.48 51.57 51.76 53.64 56.04 56.95 57.66 58.96 60.92 61.05 63.05 65.20 64.73 65.10 64.78 63.84 64.03 64.55 66.03 65.81 65.30 64.84 63.72 63.81 64.11 62.94 62.11 62.29 63.18 61.81 61.90 62.58 62.02
44.41 41.59 40.15 53.90 53.25 49.53 50.68 51.19 52.55 53.71 53.77 53.75 54.69 55.89 56.41 57.20 56.76 57.07 57.17 58.61 60.66 62.21 65.21 64.97 64.60 63.84 61.79 62.63 63.78 64.33 64.72 63.82 60.93 61.66 63.63 62.45 59.68 59.64 60.87 62.18 61.68 59.87 59.64 58.96
46.49 44.12 50.18 52.56 51.92 53.85 53.18 53.58 52.68 54.65 54.68 55.47 56.77 55.58 56.72 56.26 58.35 60.35 60.49 61.11 61.76 61.43 65.44 63.18 63.02 63.23 61.96 62.15 63.81 63.44 63.29 61.48 61.25 62.15 62.51 61.68 60.02 58.73 59.00 60.65 60.49 59.24 58.46 57.76
48.52 48.92 51.42 52.20 52.98 53.47 53.55 53.34 54.21 54.91 54.86 54.94 55.39 60.10 60.10 60.92 61.11 60.51 60.94 60.74 62.22 62.69 61.42 60.57 61.88 62.99 62.65 63.64 63.43 63.37 61.59 60.80 61.17 61.24 60.62 61.97 61.08 60.08 62.02 60.65 59.12 58.26 58.34 57.40
48.89 51.91 52.16 51.15 52.11 53.12 53.02 53.82 54.06 55.04 55.47 55.39 57.17 58.56 61.12 60.97 61.15 61.13 60.51 60.68 62.06 61.08 60.54 60.73 62.55 62.51 62.31 62.13 62.47 61.69 61.32 61.06 60.21 61.41 59.81 60.56 55.53 53.94 57.42 53.48 53.50 56.80 55.17 53.91
46.09 52.18 49.69 49.72 52.01 53.48 51.91 52.01 52.54 52.72 52.37 52.43 53.43 54.07 59.69 60.57 60.78 59.32 58.62 59.70 60.38 59.34 59.59 60.04 60.89 60.60 61.46 61.55 61.13 60.19 59.20 59.77 59.29 59.35 61.52 60.05 53.64 49.37 46.22 46.43 43.51 42.72 46.24 48.89
51.43 53.45 52.12 52.17 53.26 53.98 52.41 52.57 52.35 51.64 51.72 51.02 51.64 51.88 52.14 51.47 55.44 58.17 58.71 59.00 59.23 59.35 59.59 59.22 59.00 59.26 59.30 59.15 58.77 58.47 58.68 58.55 58.77 57.43 58.42 54.42 52.79 50.85 48.88 46.69 43.38 41.14 41.37 42.29
52.52 51.12 48.90 50.78 49.38 50.76 51.69 51.74 51.19 50.62 49.72 50.28 50.85 51.70 51.18 50.69 50.74 54.76 58.68 59.29 59.28 58.93 58.58 59.00 58.43 58.45 59.60 59.70 57.14 57.08 56.25 55.16 57.75 57.46 57.12 53.98 52.90 51.55 50.63 47.68 46.51 45.78 42.87 42.97
48.77 50.22 49.40 49.42 49.44 49.14 49.70 49.44 48.29 48.22 48.58 48.52 49.21 49.10 50.02 49.52 51.11 53.90 54.58 60.13 59.01 57.87 58.02 57.92 57.81 57.83 59.00 58.38 58.92 57.57 57.39 56.38 56.08 56.74 55.55 52.82 52.18 50.90 50.01 48.39 47.61 46.47 45.83 44.38
47.81 48.65 48.92 48.43 48.11 49.04 49.22 49.33 47.73 47.77 47.95 47.78 48.70 49.67 49.42 49.44 51.83 55.49 56.66 58.22 56.86 56.05 57.03 58.02 58.44 59.69 59.31 58.68 57.31 55.74 56.04 55.91 55.74 55.47 54.34 53.36 52.88 53.86 51.25 49.04 48.26 46.64 46.19 46.01
45.71 45.50 46.01 46.00 46.65 47.32 47.38 48.13 47.99 48.15 49.02 48.87 49.56 49.70 49.63 49.89 52.62 54.75 55.60 57.50 57.40 57.19 58.45 58.97 59.26 59.04 58.92 57.66 56.43 55.32 54.27 53.47 55.66 54.07 53.38 52.49 51.59 51.67 51.85 52.58 49.80 47.65 46.91 45.57
48.67 48.11 48.07 48.00 48.01 48.07 47.60 47.78 49.11 50.30 49.82 49.40 50.76 50.65 50.51 50.39 52.37 54.53 54.92 55.73 56.35 55.66 55.50 56.15 56.75 55.82 57.26 57.21 55.70 53.51 52.60 53.31 53.21 52.92 52.68 53.72 53.34 52.87 50.11 48.79 47.90 47.76 45.76 44.44
50.89 50.25 50.95 51.25 50.86 49.20 49.42 49.16 50.26 50.65 51.18 52.53 53.07 52.20 51.51 51.91 54.40 54.36 54.85 54.40 54.63 53.87 53.03 54.84 56.78 56.27 55.02 56.27 54.49 53.03 53.15 52.73 51.97 50.96 51.35 50.78 50.26 49.70 49.20 48.91 48.46 48.53 45.80 45.17
51.19 51.51 51.97 51.87 52.29 51.68 51.18 51.74 51.89 51.49 51.26 53.16 53.10 53.38 52.95 52.98 54.35 53.73 53.30 53.00 51.94 53.32 55.28 55.15 54.69 53.34 53.53 54.84 54.90 52.18 51.68 51.56 51.03 50.00 49.50 48.89 49.05 49.60 51.94 49.25 49.77 48.10 46.69 45.70
50.42 51.36 51.56 50.66 50.57 51.40 51.52 50.58 50.05 50.21 49.34 50.33 49.21 50.58 52.02 52.71 53.97 53.32 51.48 51.19 52.67 53.66 54.97 56.02 53.51 50.95 50.66 51.26 49.98 49.21 48.86 48.35 48.30 47.59 47.59 46.78 46.57 46.32 45.89 46.56 47.94 47.57 45.32 45.81
48.75 49.55 50.07 50.01 49.34 48.82 49.82 50.04 49.98 50.15 50.18 50.50 51.44 51.00 50.56 50.33 51.90 51.70 52.41 53.09 52.48 53.33 53.73 53.67 52.00 52.14 51.20 51.62 47.32 46.99 46.15 47.30 47.17 47.07 46.87 46.16 45.15 45.09 44.80 44.16 44.01 43.99 44.85 43.54
47.41 48.28 48.55 48.14 48.46 49.21 49.61 49.24 50.67 50.66 50.64 50.53 50.59 50.73 50.66 50.69 50.88 50.43 50.24 51.98 53.56 52.57 52.77 52.15 52.37 53.55 53.63 47.50 45.41 43.64 43.02 42.69 43.08 44.51 45.98 46.25 45.66 44.92 44.13 42.89 43.00 42.93 41.54 42.53
47.55 47.61 47.65 48.93 47.54 46.99 46.79 48.14 49.77 50.31 50.19 50.95 50.96 48.53 48.90 48.96 49.58 51.25 51.81 51.11 51.04 50.73 51.36 50.96 50.71 51.95 49.50 45.50 43.06 41.53 40.75 41.05 39.83 39.11 40.03 41.31 42.47 42.72 42.45 41.04 40.49 41.25 40.53 40.23
47.54 47.68 47.06 46.15 46.38 45.97 45.74 47.69 49.24 52.68 54.00 53.22 53.01 52.93 50.08 48.42 49.17 49.60 51.35 52.79 50.25 49.90 49.57 49.57 50.63 49.91 44.80 43.04 41.67 41.20 41.23 39.54 38.97 38.40 38.60 39.53 39.63 39.86 39.57 39.72 39.84 40.23 39.53 40.09
46.52 47.03 46.49 46.37 45.69 45.92 46.11 46.27 47.12 48.54 48.69 48.77 49.43 50.43 50.32 47.49 47.14 47.90 48.53 49.25 49.66 49.11 48.62 47.11 46.82 46.26 43.60 42.58 42.07 42.13 41.81 41.38 39.58 38.38 37.73 38.00 38.52 38.94 38.92 38.79 39.40 39.56 38.55 39.17
46.06 44.58 44.72 44.75 45.36 46.45 47.48 47.36 47.14 47.73 47.84 47.28 47.82 48.91 49.83 50.25 49.16 48.12 48.12 48.31 47.50 47.55 47.47 46.83 46.53 45.17 42.60 41.81 41.89 42.07 41.49 41.53 39.40 38.68 38.11 37.89 37.78 37.61 37.95 38.73 38.72 39.92 38.72 37.63

GFSNGP_sfc_wetblb_006.txt.gz
Wetbulb
45.36 43.61 44.67 44.62 44.90 44.33 42.50 42.65 42.13 44.90 43.77 48.26 51.73 53.06 54.51 57.44 57.54 57.38 56.82 58.31 61.03 62.83 63.63 64.35 64.88 65.86 67.93 69.32 70.37 70.28 67.94 66.79 65.98 65.71 65.47 64.94 64.63 64.57 64.17 63.01 63.11 62.87 62.44 62.24
43.22 44.75 44.59 44.05 45.35 46.38 45.97 45.21 45.07 44.85 44.87 49.41 52.98 54.06 54.41 56.02 56.99 57.14 57.64 58.41 59.49 61.71 62.74 63.24 64.19 64.52 67.21 68.42 69.48 70.37 68.79 67.37 67.56 66.37 65.93 65.54 65.50 65.36 63.88 63.16 62.59 62.78 61.83 62.35
39.37 41.29 41.31 38.69 44.85 45.01 45.98 46.48 46.71 43.61 48.36 49.73 51.39 53.60 54.39 54.53 56.59 57.96 58.10 58.90 58.34 59.13 60.84 61.95 62.71 64.52 66.05 67.91 69.78 70.00 69.42 68.65 67.90 66.42 65.30 64.12 64.55 64.97 63.72 62.85 62.52 62.48 62.48 62.65
40.73 38.11 33.24 43.95 48.11 48.82 48.42 50.68 50.50 50.46 49.90 51.12 52.95 54.88 55.29 55.61 56.51 56.93 57.56 58.67 58.63 58.51 60.01 61.31 62.21 63.92 65.85 67.40 68.85 69.74 69.29 69.03 67.41 66.10 65.14 64.15 63.41 63.12 64.19 62.80 62.17 62.37 62.48 62.72
36.42 35.40 40.35 47.43 50.24 50.60 50.19 49.10 52.88 52.02 53.94 54.14 54.07 54.84 54.22 55.43 57.60 57.27 59.00 59.87 61.36 61.61 61.17 61.55 63.17 64.76 65.72 66.91 68.32 69.07 68.78 68.13 67.12 66.43 65.36 65.23 64.69 63.23 63.60 63.13 62.88 63.57 63.41 62.93
37.01 36.03 37.34 44.55 51.19 54.40 52.60 45.78 52.45 53.09 52.35 52.27 52.58 48.80 50.69 54.54 56.48 56.30 57.81 59.36 60.96 63.02 63.38 64.01 64.08 65.86 65.65 66.00 67.24 67.78 68.24 67.90 67.46 67.30 65.47 63.80 64.51 64.25 63.46 64.00 63.45 64.52 63.49 62.44
40.42 39.27 42.55 49.98 51.85 54.42 45.63 44.50 51.98 52.96 53.57 53.83 51.16 52.77 55.21 57.33 57.45 58.47 59.83 61.51 62.88 63.74 64.52 64.65 65.28 66.09 65.32 64.86 65.90 67.46 67.50 67.74 67.90 67.37 66.45 65.34 63.82 63.26 62.60 63.56 63.49 62.82 61.08 60.02
43.44 41.31 39.11 51.76 52.26 47.80 51.13 51.82 53.15 54.28 53.44 53.44 53.99 55.24 56.80 57.99 58.17 59.16 59.63 60.86 61.76 62.01 64.22 66.22 65.56 65.82 64.55 64.76 65.80 66.21 66.09 65.18 64.75 64.68 65.17 63.05 61.39 61.62 62.08 61.59 60.60 61.39 61.43 59.37
45.27 43.98 49.71 51.73 49.86 52.15 53.81 53.97 53.84 52.93 54.24 56.39 56.02 56.64 58.10 58.24 58.80 59.75 60.87 61.46 63.46 63.85 64.34 64.37 64.81 65.74 63.88 63.24 64.81 64.27 62.52 62.17 62.75 62.89 63.02 62.45 61.43 61.27 60.93 61.22 60.36 60.90 61.39 60.95
47.73 49.39 49.72 49.88 51.72 52.08 52.83 52.34 53.28 54.08 54.92 56.44 56.50 58.94 59.06 60.59 60.25 59.88 60.87 61.48 62.58 62.64 61.62 61.47 62.81 63.27 63.23 63.97 63.82 62.64 61.64 61.96 62.50 62.32 61.37 61.03 61.56 62.06 60.95 60.00 59.80 60.74 61.29 60.47
46.97 49.63 51.71 50.77 51.93 52.79 52.40 52.66 52.51 52.80 53.55 53.83 53.84 53.49 54.10 56.16 60.21 60.00 59.83 61.22 61.72 61.23 61.16 62.05 62.74 62.24 63.50 63.30 62.72 61.92 61.54 61.33 61.20 60.75 61.52 61.44 60.75 58.08 59.70 56.81 56.89 60.59 59.70 59.48
44.35 49.95 49.64 48.83 52.15 54.63 51.57 51.56 52.38 51.52 51.06 51.76 52.21 51.98 53.44 52.33 57.36 59.40 59.93 60.92 60.04 60.00 61.32 61.29 61.60 61.77 62.59 63.41 63.97 63.13 61.73 60.73 60.10 60.40 60.92 60.44 54.22 51.76 45.73 44.69 44.64 43.99 44.70 52.05
48.06 49.29 50.13 50.77 51.82 52.54 49.89 49.84 50.85 50.49 50.91 50.50 51.32 51.08 52.39 52.51 53.76 57.78 60.15 60.98 60.66 59.71 60.03 60.42 60.76 61.57 62.33 62.20 62.63 62.37 61.48 58.79 58.06 58.31 59.71 57.35 55.57 53.60 52.56 47.97 42.53 41.90 42.27 42.17
52.31 51.88 48.23 49.34 48.05 50.09 50.60 50.89 50.89 50.34 50.41 50.96 50.99 51.43 51.05 50.79 52.57 53.62 54.76 58.13 60.79 59.77 59.34 59.70 60.18 60.34 60.13 60.09 60.23 59.65 60.01 54.96 59.62 58.99 58.87 56.71 55.53 54.76 53.53 52.52 51.28 48.79 43.40 43.91
50.09 51.03 49.28 50.01 50.19 50.12 50.18 50.52 49.58 48.78 48.85 49.23 49.94 49.93 50.27 50.33 50.88 52.57 55.57 57.78 60.21 59.97 59.61 59.70 58.81 58.74 59.90 59.31 58.85 59.34 58.66 58.09 58.44 58.31 57.23 55.51 55.29 54.63 53.78 51.80 50.91 49.47 48.44 44.72
49.32 50.26 49.87 49.11 49.00 49.17 48.50 47.96 47.52 48.55 49.13 48.65 49.14 50.39 50.40 50.70 51.03 52.56 54.97 57.71 57.77 58.78 59.61 58.93 58.66 59.50 60.73 60.35 60.40 60.10 59.22 56.57 56.45 57.29 55.53 54.77 54.39 53.68 52.37 51.92 50.70 49.77 49.54 50.07
46.61 46.34 47.06 47.20 47.93 48.04 47.93 48.36 49.18 49.96 50.50 50.17 50.32 51.42 51.68 51.30 51.15 52.08 54.26 56.47 58.01 58.00 58.67 58.71 59.15 60.79 61.45 60.36 59.04 57.78 57.60 57.71 56.45 57.05 56.01 55.02 54.63 54.19 53.61 52.43 51.18 50.55 50.99 49.59
48.78 48.34 48.44 48.72 48.86 48.57 49.57 50.05 50.10 50.63 50.33 50.99 52.54 53.03 52.68 52.33 51.28 52.08 55.42 56.33 57.57 57.94 58.70 58.56 59.36 58.67 59.47 58.83 58.75 57.80 55.88 56.16 56.90 56.95 56.05 55.32 54.98 55.18 54.74 53.87 51.72 51.31 50.53 48.57
50.97 50.68 51.24 51.23 50.92 50.70 50.75 51.06 51.18 51.84 52.21 51.96 52.79 52.18 53.05 53.79 55.05 55.71 55.51 55.69 55.57 56.23 56.03 56.73 57.73 57.44 58.31 57.98 56.25 56.39 55.70 55.37 55.18 55.12 55.22 52.97 54.15 54.23 53.63 52.64 51.73 51.43 50.14 47.72
51.41 52.17 51.26 50.76 51.41 51.12 50.76 51.04 50.61 51.16 51.58 50.21 50.96 50.63 51.12 52.89 54.09 55.05 55.11 54.05 54.60 55.77 56.25 57.29 56.27 56.41 56.35 57.46 55.79 54.82 54.82 54.39 53.80 53.22 53.45 53.47 53.12 52.77 53.12 49.35 52.21 50.45 48.94 46.78
49.85 50.12 50.02 50.08 50.03 50.20 50.23 50.62 50.11 50.14 50.86 50.79 50.23 50.24 50.28 53.08 54.55 55.63 54.31 54.41 55.34 55.99 57.09 56.31 55.69 54.58 54.55 54.31 53.24 52.37 51.75 51.88 51.91 51.90 51.68 51.72 51.79 52.29 52.77 53.13 52.02 50.07 50.01 49.43
48.17 48.36 49.19 49.10 48.58 48.76 50.18 49.79 51.42 51.04 51.26 51.64 52.30 52.73 52.62 52.45 52.91 53.75 54.35 54.10 54.06 52.91 55.36 55.04 53.60 52.67 53.48 52.38 50.99 50.43 50.17 50.68 50.57 50.80 50.80 50.50 50.24 49.99 49.50 49.20 49.50 50.71 49.97 49.29
47.36 47.97 48.13 47.80 48.09 47.78 48.90 49.62 50.78 51.21 51.39 51.95 51.45 51.36 51.72 51.91 52.18 52.98 52.70 54.14 55.18 53.19 55.17 54.76 52.83 53.28 51.28 49.48 48.40 47.26 46.83 47.02 46.87 47.02 48.42 49.67 49.60 49.48 49.24 48.96 48.88 48.87 48.22 48.50
47.20 47.62 48.06 48.63 48.03 47.31 46.83 48.56 51.45 52.71 51.97 52.59 52.46 52.05 50.33 50.60 51.08 53.26 53.73 51.78 50.98 51.90 53.68 53.41 53.03 51.96 49.74 49.20 47.01 46.37 45.87 45.98 45.68 45.30 45.71 44.10 49.18 49.39 49.19 48.83 47.58 47.34 47.50 45.27
46.78 47.32 47.39 46.83 46.42 46.25 46.66 47.44 48.75 51.48 52.12 52.57 52.80 52.73 52.70 50.59 50.76 51.40 52.23 53.77 50.52 51.94 53.37 50.25 50.65 50.76 50.53 48.33 46.37 45.64 45.66 45.56 45.05 44.80 44.68 44.65 44.89 45.72 46.32 46.47 46.37 46.31 46.05 46.09
46.22 45.71 46.67 46.94 46.17 45.75 46.86 47.40 47.52 48.31 49.60 50.19 50.71 51.26 51.87 52.18 50.38 50.33 51.02 50.52 53.19 51.01 52.77 52.10 51.46 51.44 49.89 48.19 46.76 46.09 46.12 46.19 45.43 44.15 43.18 43.66 44.01 44.48 45.02 45.42 45.62 45.34 45.19 45.67
46.25 44.55 45.27 45.45 45.32 45.40 46.64 47.31 47.98 48.13 48.59 49.22 49.13 50.49 51.29 51.62 51.77 50.36 48.50 50.80 50.93 50.60 50.92 51.28 50.54 49.37 49.50 48.31 47.01 46.56 46.22 46.10 43.89 45.43 44.00 43.54 43.56 43.79 44.07 44.45 44.59 44.78 45.18 44.75

GFSNGP_sfc_wetblb_009.txt.gz
Wetbulb
51.04 52.43 50.32 49.13 47.52 48.76 48.41 50.35 48.34 50.14 50.77 55.00 59.64 61.00 62.68 64.02 64.60 63.13 63.82 65.33 67.34 68.35 70.57 71.99 72.66 72.94 73.22 73.30 74.51 74.94 74.86 73.97 73.21 72.43 71.93 72.08 69.70 66.70 64.84 65.47 65.81 66.33 67.09 67.42
46.85 50.45 50.09 47.82 49.35 49.17 49.70 50.03 50.66 51.58 52.38 57.60 60.76 61.81 61.87 62.31 63.82 63.06 63.45 64.89 66.64 68.35 68.88 69.71 71.03 71.47 71.65 72.69 73.56 74.73 74.50 73.51 73.35 72.93 71.55 70.76 68.94 67.52 65.07 64.62 64.79 65.43 65.11 65.76
46.57 48.63 48.09 45.11 49.06 49.65 50.65 52.01 51.58 49.45 54.40 59.38 57.69 59.15 61.32 63.37 64.14 64.54 64.84 65.17 66.36 68.01 69.22 69.43 69.99 70.89 70.65 71.81 73.15 73.56 73.84 73.47 73.05 72.55 70.88 70.02 68.93 68.31 66.86 65.58 64.74 64.94 64.69 64.65
47.14 47.09 39.70 48.53 52.95 52.60 51.42 52.39 53.84 54.48 56.48 59.42 60.34 62.64 62.21 63.16 64.53 65.34 66.45 66.77 66.73 66.41 67.87 69.39 70.05 70.25 71.21 71.87 72.91 73.43 73.36 73.17 72.98 72.16 70.71 69.66 69.32 68.74 67.44 65.49 67.21 64.53 65.55 67.12
44.22 44.81 48.60 49.94 53.03 50.72 49.70 50.40 54.92 54.81 57.41 58.33 58.66 60.46 60.16 61.02 62.61 64.38 64.71 65.78 66.89 67.23 67.73 68.71 68.78 69.90 70.54 71.04 72.05 72.40 72.64 73.02 72.80 71.94 70.26 69.71 69.22 67.43 68.82 66.97 66.32 66.99 66.65 66.80
47.57 42.92 41.39 51.04 54.58 56.72 56.44 49.31 57.78 58.38 58.85 59.44 58.94 55.11 59.62 60.88 62.08 63.85 65.37 66.88 67.68 67.93 68.35 68.65 69.52 70.22 70.14 70.54 71.22 71.54 72.46 72.99 73.42 71.84 70.98 69.61 68.49 67.08 68.03 67.37 65.96 66.40 66.44 67.87
47.99 45.72 48.57 53.10 54.55 56.78 49.12 52.81 57.70 58.75 59.20 59.09 58.58 60.07 60.89 63.14 64.31 66.02 66.42 67.28 69.20 70.07 69.84 70.20 70.65 71.53 71.23 71.25 70.99 72.71 73.51 73.28 72.33 71.44 70.83 70.57 68.04 67.91 67.36 66.95 64.54 64.69 66.37 67.25
48.23 46.21 44.74 53.98 54.86 53.04 56.15 58.23 58.89 59.41 59.66 59.22 60.38 61.29 62.49 63.32 64.16 65.29 65.57 65.81 67.86 68.45 69.21 70.72 71.28 71.81 71.13 70.59 70.96 72.39 72.31 71.76 70.21 70.30 68.52 67.11 66.25 66.30 67.75 66.82 64.17 62.46 64.56 62.79
49.34 48.92 53.41 54.25 53.48 56.90 60.09 58.78 59.64 60.56 60.91 61.29 61.32 62.33 63.31 63.37 64.50 65.31 66.41 66.98 68.43 68.81 68.75 69.39 70.33 71.28 69.95 69.98 70.58 70.95 70.93 69.46 68.82 69.17 67.59 66.32 65.94 65.27 64.26 64.27 64.22 62.76 62.27 62.19
50.09 51.30 51.53 53.56 55.02 55.85 56.86 56.80 58.56 60.49 59.64 60.45 59.94 62.62 63.86 64.71 65.00 65.31 66.47 66.80 67.81 67.99 67.78 67.45 68.66 69.03 69.09 68.35 70.05 69.50 68.79 68.04 68.62 68.25 66.82 66.83 66.12 65.81 65.81 64.33 63.27 61.29 63.42 62.85
50.79 50.98 52.52 53.18 54.45 55.33 55.89 56.30 56.24 57.14 57.86 57.02 57.93 58.06 62.24 63.44 64.34 65.08 65.80 66.12 67.17 67.75 67.48 66.84 68.24 68.27 68.78 68.91 69.00 67.90 67.92 67.26 66.60 66.14 66.37 65.56 62.09 61.76 63.90 64.08 59.33 62.80 62.20 65.06
49.32 52.50 53.36 52.93 54.23 54.16 52.45 52.88 55.07 55.45 55.28 56.38 57.93 57.93 58.54 59.14 61.95 62.31 63.70 66.12 66.25 66.96 66.94 66.35 67.44 67.34 67.84 68.69 68.32 67.53 66.22 65.35 64.60 64.07 63.95 63.74 60.64 56.41 44.44 44.93 44.28 44.14 44.68 57.11
50.81 53.62 52.49 52.69 52.62 54.22 53.28 53.86 54.25 53.59 54.49 54.03 55.15 56.32 57.03 57.67 58.99 58.37 61.50 63.01 65.32 65.87 66.28 66.73 67.25 67.16 67.97 68.33 68.17 67.04 66.13 65.30 64.35 62.68 64.29 63.26 61.32 61.37 60.04 49.35 42.29 40.81 42.38 43.98
53.56 52.77 50.15 51.22 50.22 52.44 52.14 53.56 53.22 53.49 54.18 55.14 55.53 56.08 56.15 56.02 57.13 57.82 59.20 61.64 64.09 65.32 66.08 66.17 66.81 66.86 67.60 67.59 66.96 66.06 66.11 56.27 63.40 63.18 63.07 61.78 61.34 61.24 61.60 60.33 59.40 55.78 44.00 46.21
51.27 52.37 51.70 53.05 52.04 51.18 52.15 53.17 52.52 52.25 53.87 54.34 55.54 55.66 55.37 55.24 56.03 57.00 58.53 60.63 63.30 64.41 65.32 65.48 65.50 65.79 66.18 66.18 65.68 65.09 63.68 62.91 63.83 64.09 63.65 61.37 62.39 61.42 61.17 60.70 59.96 57.13 53.28 47.53
50.56 51.20 51.35 51.07 51.08 51.44 52.76 53.07 52.48 52.69 53.37 55.13 55.72 56.30 56.16 57.62 58.07 58.27 58.92 59.91 60.82 61.18 63.77 64.83 64.98 65.03 64.70 64.25 63.85 63.76 64.40 58.25 60.01 62.68 60.81 61.20 60.92 60.65 60.18 59.56 58.29 57.11 56.24 56.26
49.06 48.80 50.27 50.40 51.21 52.37 52.30 53.04 53.96 54.01 54.59 55.46 56.26 57.58 57.57 58.45 59.43 59.34 59.73 61.11 61.90 62.60 63.43 64.64 64.45 64.48 64.73 64.58 64.33 64.73 64.91 62.89 59.05 62.72 62.35 61.99 61.24 60.59 60.29 59.04 58.55 57.97 57.86 56.33
52.45 52.31 53.10 53.29 52.57 52.51 52.81 54.29 55.40 56.05 55.61 55.96 56.56 56.72 56.81 57.42 58.56 59.84 60.92 61.61 62.61 62.89 62.66 63.10 64.71 64.91 64.75 64.51 64.00 62.52 61.44 61.06 62.37 62.21 61.67 61.09 60.94 60.04 60.01 59.69 59.26 58.25 58.05 54.44
54.38 53.14 53.20 53.35 53.80 53.80 53.68 54.30 54.64 55.52 56.14 55.82 55.61 55.42 57.40 58.68 59.18 60.22 61.40 61.81 61.76 61.79 59.95 62.31 59.29 62.79 63.08 62.63 61.74 61.52 61.27 61.00 61.10 61.16 61.62 57.12 59.85 60.73 60.12 59.67 58.93 58.63 58.02 56.13
52.70 53.18 53.40 53.36 53.80 53.74 53.75 55.00 55.62 55.53 56.43 56.40 56.81 57.00 57.05 57.49 58.80 59.50 61.14 60.11 59.57 59.77 61.40 60.96 61.75 62.10 62.35 59.86 59.23 61.36 61.09 60.54 59.87 59.89 60.33 60.07 59.86 59.68 59.56 53.33 58.07 57.78 57.19 55.92
51.95 52.78 52.58 52.47 52.64 53.42 54.31 54.92 55.46 55.39 56.49 57.38 57.01 57.00 57.53 58.37 58.60 59.56 59.05 58.62 60.07 60.35 61.03 59.01 61.61 60.74 60.92 59.68 60.07 60.00 59.69 59.37 59.13 59.16 59.10 59.33 58.64 59.01 58.63 58.16 57.79 57.54 56.72 53.76
52.27 52.30 52.43 52.63 53.09 53.18 54.03 55.21 56.17 56.32 56.80 57.24 57.03 57.11 57.34 57.46 58.49 59.12 59.50 58.15 60.16 53.69 59.58 60.00 59.41 56.36 57.70 57.10 58.35 57.71 57.09 56.77 56.53 56.96 56.90 57.00 56.90 56.64 56.43 56.70 56.91 57.06 56.80 56.44
52.96 52.54 52.96 53.39 53.09 53.27 54.13 55.21 55.90 56.55 56.78 57.33 57.24 56.84 56.02 55.94 56.84 57.64 56.63 58.87 60.61 55.81 60.78 59.91 53.79 53.12 52.24 57.40 55.86 54.70 54.14 53.89 53.92 54.54 54.64 54.67 55.08 55.47 55.50 55.34 55.18 55.08 55.12 55.35
52.44 53.10 53.55 53.57 53.35 53.48 53.49 54.57 53.89 54.44 55.91 57.56 57.97 58.14 57.19 55.68 56.30 57.44 59.34 54.41 51.66 54.35 59.26 57.90 54.73 51.12 50.79 56.36 55.29 54.68 53.94 53.92 53.63 53.79 53.03 45.19 54.20 54.88 54.77 55.05 54.55 54.88 54.71 52.75
52.94 53.03 53.76 54.00 53.97 53.01 54.06 54.20 54.30 55.12 55.29 55.98 57.22 57.69 58.01 58.70 56.32 56.63 57.57 58.93 51.78 54.84 57.95 51.24 51.65 51.30 57.00 57.56 56.48 55.33 54.73 54.17 53.93 53.92 53.22 51.98 51.70 52.11 53.55 54.45 54.06 53.67 53.59 53.56
52.57 52.16 52.32 52.92 52.62 52.77 53.46 54.32 53.81 54.15 54.01 54.83 56.33 57.26 57.63 58.10 58.08 56.89 57.80 54.23 58.64 55.17 58.58 58.90 57.95 57.37 57.90 57.36 56.80 56.06 55.24 54.62 52.58 52.41 51.82 52.74 52.24 51.41 51.13 51.54 51.81 52.01 51.95 51.59
51.03 45.98 50.69 51.20 51.27 51.44 51.70 51.69 52.43 52.07 52.07 53.27 53.50 55.21 55.53 55.75 56.03 54.79 52.70 56.87 57.19 57.31 57.53 57.76 57.86 55.20 57.37 57.31 56.33 56.20 55.59 55.00 50.48 53.97 53.77 53.27 52.59 51.82 51.03 51.21 51.53 51.72 51.47 51.15

GFSNGP_sfc_wetblb_015.txt.gz
Wetbulb
53.62 54.12 53.97 51.91 50.41 50.74 50.48 52.34 51.19 53.18 54.13 57.71 60.06 60.93 61.68 62.35 62.99 63.27 63.71 67.38 70.23 71.10 74.66 75.79 75.57 76.12 76.33 75.85 76.28 75.67 76.46 76.24 77.08 78.70 79.24 79.43 79.17 79.69 79.49 77.93 76.09 74.48 73.66 72.86
51.82 53.55 53.01 51.54 52.99 52.13 51.60 51.39 51.85 52.78 53.19 58.77 60.62 63.15 62.07 61.98 62.55 62.61 63.34 64.68 70.18 71.47 72.90 76.08 76.23 77.13 77.38 77.24 77.66 77.50 78.04 77.45 78.53 79.69 79.32 79.13 79.47 79.56 79.17 77.80 75.97 74.58 72.81 71.59
49.18 53.40 53.19 49.64 52.57 53.24 53.90 54.16 53.11 50.45 54.04 57.70 58.35 60.72 61.61 62.58 62.86 63.04 63.42 65.25 67.83 71.11 72.34 75.01 75.47 77.95 77.57 78.42 78.34 78.53 78.82 80.18 79.64 80.48 79.90 79.98 79.67 79.23 78.08 77.07 74.76 73.07 72.27 70.58
50.02 52.42 44.98 54.09 57.69 55.92 54.32 55.16 56.42 56.11 56.40 57.20 60.56 61.90 62.87 62.77 62.90 64.02 65.68 66.76 67.47 70.71 72.72 75.60 75.51 75.71 77.48 77.34 79.07 79.31 79.76 79.36 80.62 80.48 80.46 80.02 78.97 78.31 76.96 74.62 72.14 72.45 71.82 70.00
48.71 48.73 52.40 54.32 56.03 56.86 56.17 56.31 58.08 57.00 58.57 58.28 58.23 58.54 60.70 62.51 64.27 65.10 64.82 66.79 67.69 71.96 73.19 76.93 76.63 78.16 78.14 77.30 78.19 78.49 78.64 79.11 79.71 79.96 79.44 79.31 77.77 76.77 74.55 72.76 71.23 69.80 69.74 68.78
51.54 47.30 46.12 53.98 58.79 60.70 59.82 52.69 58.87 60.00 60.34 58.55 58.17 53.40 57.84 62.89 62.57 64.12 67.41 67.89 68.89 72.83 73.71 75.66 77.22 76.35 76.85 75.59 76.20 76.53 77.60 77.81 79.26 79.24 78.89 77.77 76.68 75.03 74.65 73.41 70.74 69.17 68.24 67.73
50.26 49.39 52.03 58.10 59.01 60.40 51.64 54.07 63.29 63.61 63.82 63.11 59.93 59.27 62.44 66.26 64.97 66.39 68.49 69.33 73.33 73.89 75.29 76.51 76.49 75.97 76.59 76.29 75.39 75.98 76.49 76.57 77.67 78.17 78.41 78.11 77.04 74.95 73.66 72.57 70.51 69.21 67.51 68.90
51.13 48.51 46.18 59.87 59.70 55.63 59.91 63.42 64.09 64.67 64.82 64.56 65.45 61.64 66.36 68.17 68.45 69.14 69.38 71.07 72.87 73.60 74.12 75.54 76.55 76.48 76.83 76.13 77.52 78.22 78.09 77.36 77.52 78.16 76.61 75.38 74.75 73.46 72.28 69.84 67.48 66.77 67.51 68.06
52.92 52.47 60.20 61.10 60.80 62.21 63.00 64.06 64.64 65.33 66.04 66.21 64.79 66.73 68.24 69.05 70.06 70.87 71.42 71.72 72.49 72.89 73.50 74.74 76.28 76.45 76.26 78.66 78.95 78.56 77.32 77.74 77.35 76.01 74.32 74.00 72.63 70.89 69.45 68.34 66.47 66.15 66.73 68.81
57.16 58.37 58.72 60.02 61.94 62.82 64.02 63.65 65.88 67.12 66.54 66.67 66.80 67.61 68.11 68.73 69.27 70.07 71.16 71.60 72.40 72.48 72.64 74.66 76.73 76.79 76.77 76.39 76.95 76.56 76.27 73.91 73.32 72.22 71.03 71.25 70.99 69.75 67.83 67.19 66.80 67.12 67.31 67.67
57.22 58.20 59.01 59.51 60.60 61.80 62.32 63.37 63.83 64.14 64.01 65.64 66.44 66.40 67.20 67.94 68.59 68.76 69.30 69.81 70.99 71.08 71.62 72.41 73.98 74.34 74.87 75.40 76.01 74.39 71.75 70.24 70.02 69.60 69.92 67.55 63.80 64.55 67.84 62.67 62.59 67.98 67.33 68.12
53.04 58.74 58.89 57.27 58.90 60.59 59.25 59.62 60.87 61.41 60.90 61.81 63.81 63.49 64.80 65.98 68.57 68.86 68.73 69.50 69.71 70.62 71.54 72.68 73.37 73.49 74.33 75.19 74.32 72.29 70.94 69.98 70.07 69.47 67.42 66.07 63.54 62.44 45.74 47.53 44.62 44.18 46.37 59.52
56.83 59.93 57.87 57.67 57.42 57.52 56.48 57.77 58.29 58.96 59.44 59.44 60.58 61.12 60.82 61.43 63.06 61.17 67.24 69.19 69.48 70.04 71.00 72.24 72.18 72.32 73.37 74.11 73.70 72.97 72.17 72.09 70.68 69.13 68.44 68.48 68.15 67.27 64.93 53.46 44.47 42.96 43.64 46.60
58.52 57.14 53.86 55.42 54.17 56.52 56.78 57.28 56.74 58.18 59.48 58.99 59.02 60.18 59.80 59.53 59.96 60.97 62.10 64.56 67.65 69.90 70.54 71.09 71.09 70.56 72.15 72.89 72.97 71.91 70.92 61.62 69.39 69.08 68.40 67.49 66.90 66.41 65.84 64.27 62.87 61.63 46.95 50.23
55.10 56.58 56.29 55.32 54.72 55.85 55.36 55.47 55.70 56.37 57.03 57.19 58.83 58.82 61.02 60.54 60.49 60.46 61.15 62.23 63.98 66.55 69.57 70.24 69.84 69.56 70.76 71.65 71.26 70.83 69.07 68.70 68.87 68.21 67.60 65.46 66.56 66.48 65.42 64.64 64.15 62.65 57.11 51.37
52.82 52.38 52.13 51.55 51.53 52.65 53.80 54.46 52.97 55.89 58.22 57.87 59.21 59.74 61.16 61.74 62.13 62.28 62.48 62.90 62.95 63.46 64.87 67.51 69.98 70.05 70.97 71.15 70.47 69.50 68.60 61.57 64.88 66.80 65.70 65.49 65.57 64.82 64.46 64.00 63.01 62.25 60.72 59.84
48.34 48.80 49.98 51.11 52.09 51.78 52.63 54.93 56.26 55.56 56.58 56.56 57.59 59.78 60.24 60.22 60.94 62.23 62.86 63.49 64.02 64.39 65.26 67.04 69.05 70.22 70.44 70.12 69.23 67.53 66.81 66.16 63.37 66.03 65.24 65.57 65.24 64.56 64.01 63.63 62.95 62.75 62.08 60.34
52.99 53.05 52.32 52.55 52.84 53.39 53.73 55.01 56.08 57.80 56.60 57.22 57.98 59.10 59.10 60.18 60.77 61.21 62.53 63.22 64.61 64.58 66.05 67.40 69.16 69.80 68.90 68.67 68.04 66.67 66.13 65.90 65.06 65.19 64.41 64.46 63.93 63.82 63.57 63.37 63.04 61.98 60.28 57.84
53.55 51.66 52.48 54.10 55.22 55.13 56.17 55.88 56.81 58.48 58.91 59.54 60.10 59.42 60.58 60.55 61.56 62.67 63.59 63.25 63.58 62.97 63.74 66.65 62.62 65.90 67.79 66.82 66.34 66.49 65.60 64.53 64.00 63.81 63.77 60.37 63.48 63.71 62.93 62.25 61.58 61.90 60.00 58.60
54.23 55.04 54.65 55.12 55.55 55.52 56.01 58.10 58.60 58.46 59.25 59.13 59.52 59.76 60.19 60.71 61.43 62.67 63.23 62.18 63.53 63.68 65.28 65.67 65.89 66.75 67.07 65.44 63.21 65.10 64.25 63.96 62.60 63.88 62.69 63.78 62.04 61.78 62.34 55.03 61.73 60.14 59.74 60.56
54.43 54.62 54.12 54.08 54.99 56.89 58.00 58.02 57.86 58.31 58.76 60.02 59.82 59.79 59.65 60.62 61.89 61.56 62.38 60.01 63.31 64.44 64.97 61.49 65.64 64.98 65.14 64.14 63.75 64.60 64.55 63.71 61.35 62.08 61.76 62.04 61.69 61.61 61.23 61.01 59.70 59.24 59.05 59.17
54.39 54.74 54.89 55.34 55.82 56.53 57.52 58.17 58.94 59.31 58.99 59.27 60.07 60.30 59.83 60.69 61.16 61.42 62.76 61.21 62.48 55.09 61.52 62.46 62.38 58.34 62.12 58.26 63.33 62.28 62.07 61.27 62.32 62.81 61.96 61.33 60.67 60.48 60.47 60.07 58.96 59.41 59.78 59.22
55.73 55.28 54.93 55.41 55.92 56.24 56.94 56.95 57.21 58.82 59.31 59.23 59.14 58.84 58.27 58.55 59.87 57.91 58.69 61.75 61.26 57.75 59.58 60.46 55.28 55.35 55.17 60.72 62.81 62.42 61.99 60.94 60.29 60.13 60.13 59.67 58.87 58.91 58.81 58.70 58.88 58.77 59.12 59.06
55.96 56.42 56.64 57.00 56.98 56.34 55.45 56.36 56.97 57.51 58.17 59.28 58.95 59.17 58.39 56.77 57.06 59.38 59.78 56.24 54.87 57.04 58.99 58.19 55.65 52.91 50.07 60.01 60.01 60.06 59.88 59.15 58.64 58.37 59.21 49.34 56.16 56.64 57.06 57.27 57.68 58.36 58.51 56.44
56.46 57.51 57.45 56.76 55.40 54.66 56.28 56.62 56.89 56.59 57.29 59.04 58.82 59.02 59.99 59.37 57.78 57.54 59.61 57.63 54.02 56.42 57.29 51.85 52.83 52.57 57.99 59.21 59.28 58.96 58.81 58.54 58.34 58.44 57.59 57.06 56.40 55.89 55.85 55.97 56.33 57.48 57.94 58.10
55.45 54.48 55.03 56.50 54.91 54.67 54.90 55.75 54.62 54.77 55.39 54.82 55.61 56.46 56.69 57.40 57.46 57.73 58.74 56.92 58.41 56.92 58.05 60.46 60.09 59.29 59.47 58.82 58.61 58.03 58.31 58.45 57.83 57.44 55.99 56.25 56.50 56.64 56.08 55.83 55.76 55.68 56.08 56.77
53.66 49.18 53.84 53.68 53.92 53.73 53.83 53.78 53.98 53.45 54.15 54.66 54.20 55.97 56.27 56.85 57.10 56.44 53.56 57.65 57.33 57.18 57.31 57.94 58.19 56.51 58.27 58.21 57.97 57.56 58.38 57.98 54.38 57.35 57.31 57.18 56.96 56.58 56.18 56.09 55.68 55.43 55.56 55.72

GFSNGP_sfc_wetblb_021.txt.gz
Wetbulb
48.14 49.26 49.92 49.16 49.98 49.47 46.69 46.33 43.40 44.58 45.09 48.04 50.95 57.02 57.82 59.83 59.96 60.27 61.58 64.47 64.25 66.40 66.80 68.11 68.98 69.95 71.14 72.04 72.86 74.87 75.02 75.16 74.68 75.36 75.85 75.80 75.42 75.93 74.91 74.96 74.07 72.58 71.13 70.35
46.79 49.43 49.15 47.70 50.44 51.19 49.59 49.19 48.53 48.52 47.64 50.16 52.65 59.13 59.46 59.16 59.81 57.82 59.98 64.82 65.35 66.51 66.95 67.28 67.99 68.84 70.13 71.44 72.21 73.24 74.27 74.25 74.69 74.40 74.82 74.62 74.97 74.81 75.55 74.32 74.67 72.79 70.94 70.49
41.16 47.70 47.59 44.75 48.04 49.86 50.77 51.23 49.96 46.23 49.37 51.24 51.78 54.79 58.47 60.03 59.07 58.42 59.93 64.71 65.11 65.23 68.36 67.84 68.65 69.35 69.70 70.93 72.24 72.37 72.50 73.74 73.86 73.91 73.83 74.12 74.39 74.27 74.80 74.90 75.08 74.02 72.39 70.55
41.77 44.28 38.95 47.01 52.93 53.30 52.10 53.05 51.88 50.73 51.29 53.05 53.46 54.56 56.63 56.81 56.07 56.57 61.74 63.21 66.53 67.68 67.28 70.13 70.01 69.97 70.37 70.53 70.96 71.32 71.02 72.13 73.28 73.27 73.48 74.14 74.16 74.28 74.20 75.28 74.64 74.50 73.41 71.18
39.80 41.62 44.00 48.74 50.68 50.85 50.00 50.05 54.11 54.47 55.59 57.33 58.71 53.59 52.29 57.56 58.21 57.50 57.00 59.58 61.43 66.55 68.39 69.20 71.12 70.91 70.21 69.77 70.35 70.10 69.98 70.56 72.22 72.95 73.17 73.50 73.71 73.80 74.66 74.49 74.72 74.76 73.54 71.51
40.71 38.50 38.19 45.20 52.79 55.48 57.05 47.56 59.07 59.24 58.45 58.53 58.12 51.38 54.17 61.08 62.18 61.21 60.76 60.22 60.84 62.67 65.50 69.71 69.01 72.04 70.46 69.72 69.83 69.75 70.05 71.57 72.30 72.78 73.09 73.39 74.07 74.06 74.84 74.87 74.33 73.28 71.08 70.59
42.46 39.92 43.53 50.84 53.24 58.27 47.13 48.25 59.05 59.99 59.43 59.36 56.35 58.00 60.44 62.66 61.63 62.29 63.18 59.97 60.76 61.80 64.29 69.47 69.43 72.05 71.39 70.55 69.91 71.61 72.51 72.71 73.45 74.30 74.02 74.72 74.51 75.03 74.71 73.20 71.11 69.79 68.98 68.56
43.92 39.93 38.83 57.09 56.14 51.59 53.45 58.53 60.64 59.86 59.62 58.03 58.22 60.20 60.35 61.73 62.24 61.47 62.89 64.16 61.95 60.85 66.92 69.57 71.07 72.39 71.69 71.67 72.56 72.32 75.36 74.77 76.66 76.64 76.79 76.88 75.49 74.07 72.61 71.21 69.99 68.38 67.25 65.94
47.09 49.46 55.72 59.40 58.75 59.59 62.53 61.84 62.43 62.99 63.71 64.06 63.76 63.45 64.57 66.56 65.87 66.96 67.01 68.49 71.25 71.60 71.95 72.07 72.39 73.25 72.06 74.15 75.29 75.49 75.23 75.45 75.57 75.13 75.73 74.56 72.79 71.09 69.93 69.60 68.28 67.34 66.49 65.70
49.61 53.17 55.80 58.06 59.76 62.55 62.07 61.06 61.42 62.87 63.11 63.25 60.69 61.51 62.05 64.17 66.27 68.76 69.87 69.76 71.03 71.91 72.33 73.02 74.27 74.53 74.90 74.65 75.01 74.77 74.44 74.06 72.94 72.73 71.63 71.64 71.00 70.04 68.78 67.54 66.66 65.91 65.07 64.90
50.25 54.31 54.96 59.03 60.50 60.88 60.90 60.64 60.32 60.16 59.73 60.10 60.13 59.61 60.54 61.18 64.16 66.89 68.23 69.89 71.62 72.71 72.58 72.45 73.68 73.86 74.13 74.55 74.85 72.92 72.02 70.99 70.29 69.12 65.69 60.33 54.40 59.76 66.75 61.07 64.13 66.26 65.44 65.19
48.82 51.52 52.06 53.38 57.78 59.80 58.57 58.34 58.37 57.58 56.96 57.88 57.34 56.56 57.84 58.70 60.92 63.35 67.02 68.01 67.94 70.04 71.14 72.00 73.21 72.47 72.42 73.06 72.16 70.12 68.60 68.40 66.64 65.96 63.66 61.77 59.69 55.75 46.77 46.56 46.25 48.34 53.12 60.95
53.34 54.00 53.09 53.51 53.63 55.61 55.14 56.07 57.60 57.22 56.85 55.32 56.91 57.19 57.55 56.51 58.01 58.59 61.39 66.55 68.12 67.39 68.28 69.32 70.31 70.57 70.92 70.68 70.00 68.93 67.20 66.64 66.35 64.93 64.64 63.38 62.22 59.79 56.06 50.60 45.84 44.48 45.49 49.60
54.99 54.46 52.29 53.14 51.12 53.99 56.28 56.80 57.14 57.74 57.41 57.86 55.95 56.15 55.60 55.69 57.95 58.93 59.66 63.04 67.38 67.42 68.35 68.59 69.51 69.27 69.77 69.79 69.08 68.40 67.49 60.34 65.85 65.14 65.18 64.23 63.04 60.64 58.65 57.09 55.99 53.95 45.97 46.61
53.72 54.77 54.42 55.25 55.23 54.72 55.03 54.62 53.75 53.90 55.09 56.00 57.84 57.58 58.19 56.83 56.71 58.26 61.68 63.28 64.28 66.22 66.11 67.21 67.49 68.57 70.09 70.23 69.74 69.00 67.32 66.55 66.54 65.76 65.21 64.10 64.63 62.88 61.10 60.24 58.03 53.69 48.27 46.31
51.85 52.23 51.96 51.04 51.38 52.96 54.17 54.73 53.23 51.94 54.14 55.71 57.12 56.34 55.94 57.40 59.27 60.49 60.34 61.88 61.28 63.24 65.33 65.91 66.07 67.66 67.95 66.85 65.98 64.78 64.24 64.04 65.01 66.23 65.27 65.44 65.17 64.23 61.76 61.13 57.53 54.21 52.93 51.46
50.25 49.45 49.77 48.97 49.46 50.24 50.23 52.80 54.54 53.60 53.41 54.69 55.82 58.14 57.78 55.48 57.10 59.54 61.05 61.73 62.55 63.03 64.66 65.36 65.40 67.23 66.94 66.90 66.52 64.73 63.09 60.76 62.63 62.62 62.49 62.40 61.63 61.70 62.78 61.08 58.25 56.55 55.87 53.24
52.73 52.73 52.70 50.15 49.98 50.75 50.79 53.03 55.30 55.57 55.80 56.35 54.82 57.15 57.95 58.96 58.11 57.59 60.72 61.12 61.34 61.48 63.25 63.84 63.41 65.18 64.49 63.09 64.96 63.42 62.19 61.20 60.65 60.30 60.15 60.61 60.76 60.64 60.95 61.28 59.35 57.88 57.06 52.85
53.15 52.31 53.60 54.15 54.28 54.21 54.55 54.99 55.50 56.76 57.11 57.59 56.98 55.59 57.21 58.16 58.93 60.00 61.33 61.51 60.70 60.40 62.39 63.30 64.60 64.70 64.05 62.73 61.82 61.10 60.01 61.33 59.64 59.34 60.09 58.78 59.21 57.98 56.81 59.51 58.80 57.85 55.54 52.92
52.94 54.32 54.22 54.76 56.13 55.70 55.02 56.10 56.55 56.38 57.28 58.12 57.42 57.23 57.09 58.55 59.44 59.36 59.92 59.69 60.52 60.54 62.85 62.47 63.85 63.13 63.04 61.78 61.72 60.96 59.92 60.55 60.43 59.55 59.72 59.59 58.54 57.38 56.72 55.08 56.71 56.49 55.56 54.49
53.61 54.39 54.41 55.03 55.21 55.96 56.51 56.45 56.40 55.99 57.32 57.80 56.50 56.36 57.00 57.65 58.59 58.33 57.85 57.12 57.88 58.33 60.28 58.81 56.91 57.76 58.48 60.65 60.58 60.17 59.98 59.46 59.59 58.91 58.35 57.94 57.42 57.45 58.54 57.39 57.88 56.89 56.43 55.28
53.29 53.70 53.76 54.55 54.75 54.93 55.70 56.16 56.91 57.01 56.95 57.00 56.98 57.35 56.78 56.56 57.50 56.89 55.62 55.68 56.27 55.28 55.62 54.65 54.31 55.93 55.27 58.80 59.69 59.12 59.01 59.47 57.96 58.49 58.22 57.90 56.88 55.78 57.28 57.75 57.87 56.66 56.64 56.08
52.12 53.09 55.05 55.04 54.06 53.56 55.05 55.16 56.43 57.26 56.77 56.41 55.66 56.41 56.08 56.45 55.44 53.51 52.67 54.97 56.32 53.67 53.90 53.03 54.50 53.80 54.16 55.97 56.33 58.88 58.87 59.27 57.77 57.42 56.90 57.02 54.73 54.37 53.75 55.90 56.88 57.06 56.54 55.68
54.02 53.65 53.54 53.34 53.03 54.59 52.35 54.17 53.63 55.45 56.46 55.33 55.90 55.56 54.96 53.22 54.06 56.48 54.86 53.78 53.97 53.98 53.09 51.91 52.96 52.85 52.66 54.38 53.91 55.62 55.04 54.43 52.78 52.45 51.89 49.94 51.28 50.40 50.04 50.12 51.53 54.32 55.97 55.53
53.31 52.82 52.16 50.68 49.51 50.23 50.54 52.95 52.40 51.43 53.89 54.02 53.54 53.65 54.40 54.83 54.14 55.83 55.29 53.90 52.30 51.81 55.11 52.05 53.34 52.87 52.74 53.84 52.81 52.86 52.72 52.44 51.72 52.85 53.32 51.95 50.46 50.26 49.98 49.77 49.43 49.91 49.79 51.98
49.76 49.86 49.04 48.28 47.72 47.95 48.46 48.69 49.33 49.79 50.55 50.01 51.05 51.17 52.36 52.49 53.83 53.90 53.09 53.06 54.55 54.78 54.73 55.87 53.81 53.95 54.21 53.97 54.37 54.53 54.45 53.68 53.54 53.29 51.91 51.69 50.92 50.73 50.12 50.55 49.90 49.81 49.92 49.45
48.50 46.96 47.57 47.24 47.52 47.37 47.80 47.45 47.09 47.64 48.13 48.04 47.78 50.02 51.78 51.19 50.93 50.26 49.62 51.46 52.31 53.14 53.86 53.35 52.31 52.08 53.09 52.77 52.94 52.20 54.06 53.70 50.15 52.93 52.96 53.42 54.62 53.70 53.44 53.00 51.79 50.99 49.62 49.55

GFSNGP_sfc_wetblb_024.txt.gz
Wetbulb
43.06 46.03 47.38 46.53 46.52 47.24 44.77 45.79 42.88 45.07 41.26 44.08 46.27 47.20 50.47 53.41 56.97 59.13 59.20 61.77 64.33 64.90 66.05 67.30 68.01 68.92 70.27 71.89 73.39 74.11 73.86 73.84 73.41 73.84 74.43 74.98 74.31 73.64 73.18 73.77 72.55 71.03 70.61 70.20
41.22 47.14 47.32 45.88 47.80 48.44 47.78 47.50 46.16 43.72 42.41 46.94 49.28 49.03 52.18 54.85 58.62 57.39 59.96 61.22 63.82 66.22 66.87 67.01 68.29 68.62 69.61 71.08 73.34 74.13 73.96 73.97 74.42 74.37 74.03 74.01 74.37 74.32 73.42 72.89 74.11 71.24 70.17 70.00
34.29 44.01 45.80 43.07 46.97 47.29 47.76 48.49 47.42 43.50 45.89 48.30 48.60 51.36 53.31 55.21 56.97 56.50 56.33 61.47 62.76 65.15 66.41 67.81 68.89 69.46 69.16 70.56 73.03 73.58 73.78 74.28 74.23 74.13 74.04 74.09 74.24 74.11 74.30 73.23 72.88 71.95 69.70 69.53
35.01 38.69 36.80 45.32 50.48 50.40 47.31 49.27 49.42 48.51 49.31 49.81 50.96 51.84 53.75 56.49 56.60 55.70 57.92 59.86 62.43 65.50 66.44 68.22 69.28 69.72 70.34 70.51 71.37 72.65 72.97 73.47 74.19 73.78 73.62 73.97 74.09 73.83 73.82 74.67 73.09 72.91 71.14 70.09
33.77 35.28 41.57 46.79 48.45 48.43 45.85 46.68 51.48 49.11 50.21 51.27 53.56 52.24 55.82 58.25 55.62 54.52 56.95 58.74 61.74 65.62 66.68 67.08 67.32 68.67 69.23 69.69 70.43 70.91 71.50 72.72 73.49 73.76 72.99 73.40 72.89 73.23 73.74 74.03 74.24 73.71 73.41 70.88
38.99 36.26 35.47 43.43 50.29 53.66 52.45 43.90 56.58 56.09 55.44 55.38 53.86 47.53 50.75 58.47 59.79 58.65 58.72 58.46 57.47 64.28 66.12 66.87 67.15 68.28 68.37 68.51 69.65 69.75 70.86 71.33 73.26 73.70 73.09 72.67 73.07 73.10 73.87 74.11 74.03 74.22 73.78 71.88
38.78 39.08 40.53 47.25 50.84 55.09 45.64 45.84 56.55 56.94 56.32 55.62 54.63 53.93 57.16 58.98 59.24 59.50 59.93 61.57 58.62 56.67 61.95 67.16 69.11 68.28 67.38 68.01 68.34 70.49 71.18 71.32 71.60 73.02 72.83 73.00 72.95 73.41 73.50 73.41 73.68 73.57 72.40 70.57
41.10 38.88 36.92 52.69 54.09 47.98 50.99 56.71 57.58 58.81 56.60 56.47 58.68 63.15 64.84 64.66 62.44 60.52 59.68 61.85 63.04 57.39 56.23 60.20 67.33 69.21 67.77 67.20 69.10 69.97 70.13 69.85 69.81 71.32 72.45 72.57 72.69 73.17 73.18 73.17 72.56 70.23 68.26 67.43
43.68 45.31 49.85 55.26 55.79 59.71 61.11 59.91 59.90 60.79 61.71 62.49 61.67 62.46 63.94 64.77 66.38 67.84 68.06 68.54 69.28 60.95 57.24 58.34 65.03 69.78 68.59 68.52 69.09 68.95 69.27 68.96 70.33 70.83 71.51 72.73 72.72 73.05 73.01 71.72 70.39 68.42 67.72 66.27
46.91 50.89 51.72 51.78 53.75 58.65 59.19 58.23 59.21 60.20 60.07 61.06 60.50 61.57 62.68 64.41 65.16 66.53 67.84 68.83 70.07 70.02 68.61 69.53 68.71 67.86 70.01 70.56 70.07 70.62 70.12 71.01 73.07 73.50 73.66 74.02 73.80 73.00 71.94 70.23 68.45 67.32 66.84 65.75
48.04 50.62 52.53 52.09 52.67 55.86 57.75 58.00 57.41 57.22 57.33 57.44 58.64 58.09 59.44 59.71 60.78 64.07 66.31 67.41 68.42 68.81 70.35 70.53 71.44 72.08 73.15 73.68 72.21 72.97 73.26 73.70 73.85 72.67 71.12 65.42 58.25 64.37 68.65 64.85 66.57 66.53 66.04 65.59
46.94 51.25 48.40 50.90 53.62 57.80 55.22 55.12 55.58 55.70 55.19 56.24 56.48 55.54 56.61 56.37 57.51 60.01 63.38 65.95 65.53 65.49 65.95 67.95 69.13 70.71 73.14 73.98 73.40 72.03 70.80 68.76 66.79 64.40 62.59 60.96 60.46 56.48 50.36 51.20 51.20 51.02 54.28 60.46
51.66 53.31 52.25 54.05 53.98 54.36 53.86 55.01 56.13 55.44 55.00 54.09 54.68 55.39 55.66 54.85 56.19 58.37 62.37 64.95 65.67 66.21 67.23 67.91 59.83 58.09 69.44 71.01 71.38 70.40 67.93 66.14 64.78 63.86 64.02 63.49 62.77 61.12 57.44 52.90 46.13 45.55 48.81 50.34
55.07 54.73 52.22 53.24 52.07 54.19 53.92 54.60 56.24 56.89 57.15 56.75 56.24 55.44 55.30 55.56 57.49 59.73 59.64 61.69 65.31 62.71 65.04 67.86 67.59 67.81 68.06 67.88 67.61 67.18 66.08 59.72 65.58 64.96 64.08 63.81 63.61 60.89 59.97 60.65 58.59 52.85 45.12 47.09
54.17 54.67 54.32 54.59 53.93 54.02 54.71 54.31 53.42 53.80 55.12 54.91 54.46 53.90 55.74 57.34 57.79 58.91 61.45 62.43 64.54 65.33 65.28 66.17 66.59 67.22 68.24 67.07 66.35 65.95 65.17 64.38 64.93 64.38 63.93 61.91 60.95 59.90 59.16 58.73 57.44 52.99 49.71 47.79
51.52 51.53 51.88 51.17 51.35 52.67 53.60 53.46 52.11 51.65 52.48 54.39 54.92 54.43 52.17 55.79 58.27 59.49 61.05 61.94 62.02 62.27 63.69 64.12 64.53 64.77 65.37 65.00 65.28 65.21 64.44 61.70 62.61 63.74 63.57 62.97 61.25 60.13 59.28 57.69 55.15 53.76 53.74 51.89
48.81 47.92 49.08 49.24 49.55 50.31 51.21 53.67 54.53 54.50 53.48 51.67 52.11 55.64 56.93 53.71 53.91 57.98 58.14 59.55 61.37 61.72 61.78 63.24 63.00 62.82 62.93 65.03 61.93 61.07 62.99 64.07 62.04 63.97 63.92 63.55 62.61 60.97 60.45 59.19 55.39 53.65 54.08 51.43
52.46 52.15 50.88 50.43 50.81 51.64 52.60 53.97 54.99 55.44 55.27 54.45 52.11 55.07 55.99 57.11 55.39 57.08 58.28 58.91 60.02 61.09 61.80 62.10 62.49 61.70 60.99 60.89 60.50 60.41 60.03 61.48 62.27 62.55 62.81 63.07 62.52 62.12 60.27 59.61 57.75 55.56 54.52 49.94
52.92 52.70 53.86 54.42 53.70 53.89 54.49 54.49 55.24 56.38 56.93 57.18 56.20 54.91 54.23 57.40 57.20 57.76 58.33 58.49 58.38 58.96 60.32 61.99 62.23 62.04 60.75 61.82 60.17 59.62 59.62 59.36 59.44 59.64 58.53 57.55 58.18 59.45 61.41 59.89 58.05 56.92 54.58 50.70
52.97 54.18 54.46 54.94 55.38 54.71 54.26 54.61 55.49 55.64 56.43 57.14 57.21 56.71 56.72 56.27 57.78 57.13 56.69 55.33 55.54 58.00 58.67 58.24 59.78 60.49 60.35 60.59 61.10 59.81 59.29 59.02 58.58 58.34 57.83 57.73 57.70 58.26 58.42 55.50 58.03 56.09 54.60 53.14
53.28 53.97 53.80 53.75 54.14 54.43 54.89 55.50 55.06 54.79 55.58 56.02 55.72 55.28 55.50 54.85 57.60 57.61 55.52 55.01 55.11 57.28 55.95 54.82 53.67 53.97 55.72 58.73 59.69 59.51 59.26 58.75 58.42 58.03 58.20 57.42 57.32 57.47 57.52 57.56 57.61 56.35 55.37 55.06
51.40 52.07 52.35 52.79 53.01 53.98 55.03 55.45 56.38 55.10 53.94 54.11 55.89 54.64 55.53 55.19 55.20 54.71 54.80 53.13 53.52 53.18 52.04 51.19 52.57 55.00 55.78 57.49 56.46 58.00 58.83 59.00 58.68 58.47 57.93 58.06 58.18 57.85 57.75 56.80 56.83 56.04 54.60 53.51
50.21 49.53 50.28 50.71 49.47 49.53 51.47 52.24 54.00 53.48 52.47 53.54 52.68 52.89 54.02 52.80 53.23 52.42 51.85 53.69 52.44 51.94 52.30 50.95 52.96 53.27 53.59 54.07 54.23 58.44 58.30 58.19 57.39 57.25 56.96 56.88 56.73 56.53 55.31 55.05 56.60 55.94 55.24 55.78
47.52 47.30 46.28 46.92 47.24 46.80 46.03 49.31 50.38 52.23 50.50 50.76 51.00 51.47 50.20 50.56 51.17 53.17 52.88 51.92 51.72 51.77 51.38 52.81 52.96 52.23 52.09 54.59 53.89 53.71 54.00 52.99 52.21 52.71 53.22 48.15 49.03 48.98 48.60 50.59 52.49 54.48 55.20 54.14
45.36 45.37 45.41 44.97 44.75 44.72 45.47 46.56 48.36 47.59 48.58 47.46 49.97 50.49 50.99 51.91 50.34 50.01 51.16 52.08 51.24 52.14 52.08 51.95 52.05 51.76 52.42 53.45 53.90 52.85 51.80 51.27 50.84 51.44 50.62 48.78 47.98 47.99 48.14 48.00 49.05 49.93 53.00 54.70
43.85 42.59 42.35 41.35 41.25 43.21 44.52 43.19 42.50 44.70 45.61 45.86 48.68 49.56 49.29 48.86 48.79 49.06 49.46 48.74 50.19 51.22 50.39 50.61 51.37 51.38 51.04 50.95 52.77 52.78 52.10 51.83 51.67 51.40 51.73 52.05 51.38 49.22 49.19 48.01 46.34 46.40 46.60 46.97
41.82 42.12 42.22 42.41 42.73 42.90 42.95 43.39 43.42 42.23 44.08 45.39 44.36 45.30 46.02 46.24 46.16 46.35 46.43 47.52 47.28 46.61 47.67 48.48 49.47 49.20 48.52 48.63 49.06 48.59 50.66 49.79 46.45 50.36 50.85 50.69 50.64 50.85 50.32 50.11 49.00 47.65 46.64 46.31

GFSNGP_sfc_wetblb_027.txt.gz
Wetbulb
38.16 41.46 43.03 43.37 42.95 45.03 42.43 44.69 42.11 43.91 40.61 43.74 45.56 46.58 47.79 49.61 50.71 54.39 56.26 59.10 61.11 63.35 63.53 64.09 65.52 67.09 68.84 70.16 71.36 71.62 71.59 71.82 71.84 72.45 72.84 72.68 72.24 71.91 72.15 72.14 71.24 70.27 69.25 69.30
36.22 42.56 43.66 42.97 44.88 45.59 45.79 46.04 44.43 44.81 41.10 45.60 48.66 47.90 46.76 48.60 49.70 53.08 56.24 59.05 60.60 63.13 64.10 64.18 65.64 66.66 68.07 69.56 71.43 71.99 71.57 71.58 72.34 72.70 72.99 73.01 72.74 72.24 71.80 71.65 71.91 70.35 69.66 69.18
30.42 38.89 40.00 38.62 44.07 45.25 45.93 46.83 46.23 42.70 45.03 46.25 45.97 46.64 47.48 48.59 49.60 52.63 54.13 57.97 60.28 63.31 64.35 65.04 66.07 67.59 67.56 69.42 70.87 71.99 71.89 72.04 72.07 72.16 72.15 73.04 73.31 72.94 72.00 71.39 72.04 70.27 70.13 69.74
30.91 34.23 31.45 43.15 48.04 48.87 47.13 47.66 46.69 45.29 47.03 47.85 48.28 50.17 50.74 50.94 52.14 54.15 55.54 56.43 59.88 60.70 61.98 65.65 67.07 67.82 68.42 69.52 70.60 71.54 71.73 71.98 72.56 72.30 71.92 72.29 72.71 72.98 72.72 72.19 71.78 72.09 70.20 69.86
30.69 31.06 38.09 44.22 46.69 46.04 44.88 44.19 48.46 48.23 48.57 48.61 48.99 50.46 50.14 54.39 54.03 55.56 56.51 57.01 60.66 62.87 63.60 63.76 65.87 67.80 68.16 68.54 70.07 71.27 71.51 71.99 72.62 73.10 72.52 72.49 72.07 72.52 72.99 73.08 72.04 71.90 71.22 69.72
33.73 30.48 31.58 40.00 49.75 53.23 51.11 43.56 49.92 50.04 49.42 49.26 49.36 44.92 49.40 55.82 55.97 55.72 55.24 55.00 58.15 61.99 62.50 63.26 66.17 67.89 67.73 67.65 69.09 70.56 71.64 72.23 72.94 73.33 73.18 72.61 72.86 72.81 73.21 73.37 73.38 72.87 72.01 70.93
34.93 34.22 38.33 47.19 52.76 55.02 41.32 44.44 54.70 53.08 51.25 50.84 49.13 50.34 52.84 57.98 57.67 57.53 57.24 58.13 57.37 60.68 63.54 63.75 63.90 66.93 67.28 67.66 67.84 70.02 71.91 72.65 72.61 73.38 73.07 73.13 73.01 73.31 73.17 73.01 73.20 73.50 72.79 72.74
36.11 35.73 32.48 52.19 52.20 48.48 51.47 56.23 55.81 55.00 54.84 54.61 56.72 60.40 61.01 61.00 61.79 62.81 62.56 64.57 63.54 54.71 57.68 61.13 63.77 65.82 66.22 66.58 68.94 69.64 70.16 70.87 71.58 72.46 73.17 72.99 72.59 72.69 72.75 72.55 72.71 72.95 72.91 71.93
40.77 41.15 48.57 51.40 53.55 54.05 54.79 55.87 58.02 57.47 60.03 62.92 62.57 62.65 63.60 63.90 65.21 66.58 67.05 67.73 68.36 67.34 65.28 62.67 58.41 64.18 63.88 66.52 67.93 68.47 69.27 69.60 70.11 71.27 72.69 72.74 71.89 71.99 71.82 72.43 72.18 72.18 71.11 69.51
45.47 48.71 51.31 53.73 54.92 55.03 56.61 54.98 55.74 57.96 59.95 61.89 62.09 62.60 62.47 63.37 64.56 65.90 67.07 67.43 68.61 69.26 69.37 68.76 70.43 68.00 64.35 65.64 65.73 65.88 67.06 68.35 69.19 69.17 70.97 72.03 72.24 72.29 72.14 72.45 72.16 70.82 68.63 67.09
45.87 49.99 52.06 54.39 53.53 55.17 55.73 55.79 56.27 56.63 56.26 56.58 58.33 57.29 58.19 58.71 60.30 62.67 64.15 64.32 64.70 65.26 65.12 64.09 64.17 63.53 63.44 65.03 67.62 64.49 66.23 67.14 68.09 68.76 68.93 67.99 58.73 67.43 72.59 70.67 70.38 69.85 68.97 67.34
43.38 50.24 49.88 50.86 53.15 55.01 54.70 54.48 54.99 55.27 54.97 55.39 55.71 55.16 56.80 56.87 58.15 60.25 62.30 63.67 64.01 64.29 64.29 61.87 57.53 56.87 58.51 58.32 58.67 62.19 68.39 67.85 69.46 66.80 62.90 61.39 62.48 58.58 49.82 56.01 55.64 56.01 55.28 61.36
49.63 52.00 52.82 53.69 54.27 54.83 54.86 55.68 56.14 56.02 56.32 55.92 56.12 56.47 56.59 56.61 57.61 58.39 61.13 62.47 59.85 59.82 63.78 64.95 61.81 58.52 58.30 59.05 61.99 59.01 63.96 65.03 63.22 62.70 63.54 64.31 65.23 63.86 60.29 54.84 52.38 50.75 51.29 52.38
53.48 53.19 51.43 53.19 52.56 54.17 54.81 55.61 56.19 56.29 55.10 54.14 55.84 57.67 57.81 58.15 59.78 60.28 60.49 62.18 63.83 64.23 64.91 65.00 65.85 65.36 64.72 63.57 62.65 65.14 62.94 59.63 65.62 65.55 65.62 65.13 64.05 63.91 63.86 63.35 62.78 59.21 47.00 47.65
54.11 54.62 53.81 54.28 53.99 52.98 54.02 54.52 53.24 53.84 55.41 55.69 55.38 54.75 57.46 57.70 58.03 59.34 60.81 62.00 63.37 63.23 63.56 63.67 64.55 64.72 66.10 66.37 65.83 63.60 65.21 64.43 66.27 65.32 64.92 62.79 63.16 62.23 62.35 63.44 63.37 54.92 51.62 47.92
51.97 52.22 52.33 51.25 50.62 52.05 52.42 52.25 51.71 51.60 53.25 54.98 55.91 55.73 53.43 56.28 57.65 58.80 59.90 60.89 60.87 60.45 60.88 60.73 60.55 62.33 64.84 65.42 65.08 64.07 63.79 61.25 62.64 63.23 61.87 61.11 61.30 61.12 60.23 58.09 57.21 57.51 56.99 53.40
48.68 48.33 49.41 48.73 49.09 51.28 52.33 53.81 53.26 52.61 52.72 53.35 54.49 56.48 56.90 57.01 57.84 57.78 58.23 59.33 60.50 60.57 61.10 61.30 60.75 60.55 61.33 61.66 62.76 63.40 63.38 63.49 61.38 63.18 61.67 61.47 61.13 60.94 59.39 58.10 57.16 57.02 56.37 53.30
51.41 51.18 51.10 50.38 50.38 50.65 51.51 53.12 54.17 54.70 54.53 54.40 53.86 55.46 55.61 55.83 55.01 55.33 56.07 57.41 59.30 59.47 59.55 60.08 60.00 59.57 59.81 59.99 60.38 61.50 62.62 62.69 62.96 62.45 62.18 61.35 60.32 60.24 58.83 57.68 57.20 55.59 53.49 48.45
53.38 53.38 54.30 54.55 54.25 54.25 53.67 53.69 54.49 55.29 55.86 55.92 54.88 52.75 53.94 55.49 55.06 54.68 54.66 54.80 54.13 53.44 54.37 56.73 59.87 58.98 58.69 61.01 59.36 59.64 60.16 60.69 60.54 60.00 60.24 58.19 59.74 59.17 59.27 58.69 57.34 56.46 53.12 49.93
53.66 54.19 54.78 55.08 55.61 55.06 54.74 55.56 55.83 55.96 56.67 56.90 56.48 56.74 56.27 55.91 55.69 55.55 55.55 53.16 53.16 52.25 51.95 53.41 54.77 55.29 56.94 59.06 59.79 58.06 57.95 58.07 58.36 58.19 59.28 59.87 59.73 59.51 58.61 54.27 56.72 55.02 53.78 52.32
52.98 52.91 53.29 53.88 54.37 54.80 55.00 54.71 54.34 54.02 55.14 56.27 55.22 54.96 54.63 55.40 55.10 54.68 50.76 48.67 50.08 51.39 50.95 52.42 52.86 53.12 53.70 57.75 58.92 59.51 58.74 57.63 57.27 57.64 57.60 55.26 56.07 56.73 57.47 58.05 57.97 56.75 55.06 52.63
46.59 46.49 47.32 48.18 50.23 51.49 51.99 51.53 53.13 53.19 53.40 53.84 54.21 54.28 53.78 52.47 52.77 51.72 51.00 49.35 50.02 50.90 51.55 52.16 52.92 54.81 54.11 54.78 56.01 56.77 57.45 57.83 57.47 57.70 56.05 56.17 55.93 56.33 56.37 57.14 56.42 56.54 57.08 55.22
44.55 45.17 45.33 45.93 46.95 48.12 49.10 49.57 49.10 49.40 49.13 49.67 48.37 49.35 50.05 49.49 49.95 49.84 49.26 50.56 49.93 50.21 51.33 52.01 52.45 53.29 53.86 53.72 56.21 56.17 56.89 57.15 56.59 57.11 57.75 57.90 57.96 58.11 57.13 57.21 57.92 57.08 55.35 53.88
44.50 44.72 44.40 45.24 45.79 45.16 44.37 46.08 47.15 47.91 49.17 48.31 47.31 47.49 47.00 47.68 47.66 48.30 49.97 50.50 49.71 50.38 50.74 50.86 51.75 51.78 52.44 52.27 52.79 51.78 51.25 49.75 50.16 53.54 54.70 48.53 51.94 53.52 52.81 54.38 55.02 55.24 55.27 54.19
42.73 43.13 43.34 43.18 42.34 41.82 42.89 45.25 46.02 46.65 47.10 45.71 46.14 45.79 45.22 45.69 44.88 46.26 48.15 49.55 48.79 49.73 49.63 49.91 50.34 50.59 50.84 51.98 52.08 51.74 51.70 51.14 49.83 51.12 49.05 47.75 46.21 46.48 46.61 47.86 49.64 51.57 53.94 55.73
39.82 39.90 41.27 40.35 39.64 41.05 42.15 43.71 42.72 43.16 44.04 42.62 42.88 44.13 45.08 45.19 45.85 46.64 46.11 45.65 45.06 45.05 44.31 44.59 46.02 47.23 47.83 48.00 49.61 49.60 50.14 51.09 50.99 50.17 50.23 50.31 49.67 48.94 47.67 46.27 45.52 45.15 45.03 45.22
41.05 41.36 41.58 41.92 42.43 41.61 42.09 41.44 40.96 40.18 40.90 41.24 40.93 42.60 43.47 43.70 43.55 43.20 43.94 44.17 43.41 43.15 42.93 42.70 42.65 43.15 43.28 44.85 46.26 46.90 47.10 48.50 46.80 49.80 49.64 49.17 48.76 48.22 47.38 46.43 45.71 45.08 44.62 44.18

GFSNGP_sfc_wetblb_030.txt.gz
Wetbulb
35.87 39.52 40.72 40.75 41.05 42.36 40.58 43.41 40.92 43.61 43.49 45.15 45.93 46.46 48.98 50.36 52.81 53.36 55.89 57.68 59.06 60.54 61.62 62.76 64.62 65.94 66.79 68.00 69.10 70.18 69.84 69.98 70.33 71.02 71.51 71.75 71.86 72.30 72.52 72.39 71.48 70.54 70.45 70.47
34.24 40.22 40.77 39.05 41.97 43.38 43.51 42.82 42.07 44.30 42.77 45.56 48.51 47.80 48.38 49.37 50.28 50.75 52.14 54.88 57.57 61.16 62.44 61.93 64.35 65.42 66.78 67.98 68.92 70.20 69.76 69.74 70.81 71.18 71.34 71.32 71.58 71.58 71.90 72.34 72.53 71.15 70.27 70.11
29.49 36.98 37.81 35.66 40.98 42.74 43.03 44.17 43.88 40.89 44.69 47.29 46.29 47.08 48.24 49.47 49.94 50.10 51.09 54.24 56.97 58.98 62.36 63.11 63.94 65.70 66.40 67.82 69.86 69.99 69.96 70.21 70.81 71.26 71.34 71.65 72.07 71.70 71.33 71.47 72.05 71.48 70.83 70.54
29.47 32.85 28.05 38.56 44.65 46.07 44.86 46.01 45.70 45.30 46.88 48.32 49.62 51.13 50.92 51.15 51.73 51.09 51.67 52.97 56.28 59.01 61.33 64.26 65.02 65.60 67.04 68.38 69.53 69.98 69.94 70.22 71.17 71.54 71.39 71.90 72.13 71.89 71.84 71.74 71.47 71.54 71.23 70.98
28.83 29.15 35.97 40.07 46.27 47.26 45.51 44.78 48.01 47.30 47.98 48.14 49.58 49.72 50.27 50.91 51.01 52.09 53.26 54.90 56.08 59.33 61.86 63.02 63.66 65.42 66.36 67.41 68.96 70.25 70.32 70.30 71.31 71.98 71.63 71.98 72.02 72.21 72.31 72.08 71.68 71.63 71.74 71.02
30.00 28.54 28.42 38.92 49.91 53.21 52.47 42.23 50.46 50.82 48.88 49.23 47.74 44.17 49.02 52.13 55.49 53.62 55.18 55.83 57.11 59.34 61.57 61.75 63.83 65.55 66.04 66.59 68.26 69.10 70.88 71.15 71.87 72.20 71.88 71.65 72.00 72.45 73.09 73.11 72.32 72.25 72.10 71.88
30.20 31.09 35.47 43.55 50.83 54.32 41.08 42.99 53.62 54.19 54.70 49.42 47.86 51.35 52.92 55.00 57.98 56.61 56.82 58.96 59.48 60.54 61.74 62.13 64.20 66.11 65.97 66.56 67.25 69.53 71.22 71.98 72.39 72.69 72.40 72.35 72.27 72.55 72.64 72.97 72.95 72.27 72.09 71.86
30.36 30.34 29.05 49.36 50.05 47.58 49.33 53.50 54.94 55.17 56.58 56.29 49.66 52.12 56.58 58.34 60.74 61.67 64.58 67.32 65.19 61.96 61.79 57.59 63.69 65.67 65.63 65.69 68.31 70.12 71.43 71.80 72.15 72.67 72.96 73.05 72.69 72.83 72.85 72.77 72.68 72.54 72.23 71.72
34.17 34.12 43.08 50.75 51.33 53.23 53.95 54.63 55.29 55.19 56.40 58.32 55.64 60.27 62.93 64.21 65.64 66.69 67.60 67.98 68.26 68.77 69.13 69.74 64.86 65.00 64.64 64.82 68.51 68.87 69.20 70.51 71.70 72.50 73.19 73.49 72.66 72.39 72.15 72.67 72.30 72.16 71.74 71.14
39.94 43.20 47.02 50.81 53.19 53.95 55.63 55.23 55.73 56.38 57.45 60.94 61.75 62.77 63.21 64.46 64.62 64.77 65.47 67.13 68.43 68.04 66.35 65.98 66.88 66.13 66.44 68.19 70.18 67.41 67.68 68.42 69.98 71.02 71.79 73.09 73.09 72.87 72.21 72.02 71.86 71.76 71.56 70.99
39.02 44.18 49.75 52.04 52.13 52.82 55.43 56.22 55.85 56.21 55.90 56.10 59.33 58.47 60.60 60.94 62.31 63.16 63.39 63.31 63.70 62.40 60.48 59.64 59.88 59.58 60.05 61.24 66.55 67.59 66.24 66.48 67.76 69.28 69.59 71.91 68.03 69.04 72.51 73.20 70.96 72.19 71.95 71.78
35.83 44.34 47.78 49.23 52.23 53.97 55.22 55.38 56.30 56.07 56.35 56.57 57.61 57.54 59.24 59.09 60.60 61.54 60.48 60.61 62.35 63.96 64.48 62.82 60.59 59.06 58.95 61.64 61.39 64.90 67.89 68.41 67.09 67.99 66.22 63.28 63.48 60.61 50.40 54.41 52.59 53.32 55.31 62.14
43.62 49.22 50.85 52.72 54.34 55.32 55.41 55.38 55.80 56.27 57.25 57.95 58.53 59.34 60.32 60.53 61.13 60.72 63.09 63.14 63.06 63.35 63.77 64.44 64.73 63.56 63.94 62.83 64.18 64.15 64.98 65.24 64.88 63.66 64.82 64.46 65.22 63.92 60.52 54.17 50.06 50.60 50.42 53.86
50.00 51.30 51.71 53.14 52.13 54.14 54.96 56.71 57.33 57.60 57.21 58.39 59.33 60.09 60.13 60.22 60.90 61.41 61.33 63.05 63.44 63.01 63.20 64.49 64.50 63.44 66.50 65.66 64.96 64.08 63.82 56.22 65.27 64.93 66.13 65.95 66.29 64.62 63.10 62.33 62.43 60.65 52.23 53.86
49.95 53.64 53.50 54.01 53.28 53.22 54.56 54.50 54.76 55.27 56.38 56.33 57.39 58.91 59.58 59.86 59.91 60.39 61.39 61.77 61.63 61.03 60.64 61.44 62.60 63.19 66.25 65.03 62.56 64.05 61.77 63.87 66.34 66.83 65.88 63.57 64.35 63.06 62.23 62.18 61.81 60.82 56.66 50.73
52.65 52.79 52.71 52.43 52.62 52.95 53.24 52.93 52.02 52.51 54.29 56.02 56.79 57.57 58.43 59.12 59.44 59.75 60.38 61.07 60.11 59.35 60.10 59.89 59.88 60.95 63.65 65.72 64.38 63.61 62.31 59.62 62.08 63.81 62.60 62.19 61.57 62.03 61.05 60.65 57.87 57.27 58.25 56.02
49.25 49.40 51.06 51.12 51.74 52.28 52.81 53.89 53.79 53.32 54.99 55.74 55.95 57.33 57.78 57.76 58.04 58.29 58.77 60.09 59.89 59.21 59.76 59.52 58.94 60.50 61.83 63.63 64.83 64.60 64.69 63.83 60.85 63.16 62.07 61.86 61.22 60.75 59.80 60.18 59.52 60.18 59.19 55.28
51.97 52.65 51.94 52.14 51.91 52.67 52.83 53.83 54.36 54.35 53.88 54.12 56.44 56.39 55.90 55.31 54.50 54.59 54.91 55.71 55.57 54.58 53.64 56.34 59.36 59.49 60.81 62.00 63.24 64.13 63.90 64.20 63.96 62.77 62.25 62.27 61.69 60.31 60.31 60.13 59.57 56.91 54.24 51.65
54.13 53.98 54.31 54.46 54.30 53.95 53.80 53.89 54.42 55.43 55.80 54.64 54.93 54.60 55.29 55.21 54.74 54.22 53.45 51.82 51.25 51.23 51.94 53.58 56.47 57.88 59.15 61.23 61.66 62.69 62.62 62.93 62.47 62.01 60.98 58.33 60.19 59.68 59.30 59.22 58.91 57.72 55.77 54.66
54.15 54.23 53.66 53.06 53.23 53.66 53.82 55.28 56.06 55.95 56.49 56.68 55.98 54.34 53.33 53.48 52.96 51.59 51.10 49.85 50.55 51.01 52.25 54.18 54.08 54.03 56.48 59.97 60.03 60.07 60.81 61.07 61.02 60.25 60.43 60.80 60.35 59.60 58.51 53.29 56.40 56.42 55.83 55.59
48.97 50.64 50.86 49.14 48.91 49.50 51.73 53.60 54.82 54.17 54.51 54.66 53.93 53.10 52.81 53.17 51.98 51.94 50.74 50.36 50.99 51.81 52.64 53.49 54.07 54.53 54.63 58.36 59.27 59.83 59.74 59.02 59.32 59.50 60.02 60.30 59.94 59.68 58.41 58.39 58.06 57.54 56.44 55.73
45.46 46.22 48.95 49.17 47.54 46.86 48.41 49.87 49.94 49.40 48.97 50.00 50.68 50.49 49.78 49.37 51.10 50.69 50.27 49.24 50.94 50.96 52.58 52.73 53.33 54.29 55.69 57.62 58.72 58.57 59.13 59.42 58.47 57.74 57.56 57.72 57.92 58.52 58.38 58.21 57.97 57.51 56.48 55.56
44.00 44.69 44.83 45.14 45.78 46.42 47.09 47.47 47.04 46.31 44.99 44.84 45.03 46.67 47.20 47.69 48.72 48.87 47.96 50.13 50.97 49.93 50.92 51.02 51.52 52.67 52.90 53.52 53.23 53.25 52.97 54.20 57.68 58.43 59.12 58.60 58.67 58.35 58.86 58.53 57.94 57.97 57.29 57.03
42.40 42.87 43.18 44.97 45.36 44.95 44.32 45.26 45.23 44.85 44.73 44.89 44.48 44.79 45.09 47.85 46.12 47.77 48.13 47.46 47.21 47.22 47.06 48.51 49.38 50.02 51.45 52.11 52.74 52.50 51.99 52.40 52.04 52.37 50.92 47.38 50.70 53.79 56.02 57.88 57.66 57.97 58.02 55.83
41.48 41.94 41.71 41.92 41.75 41.99 43.00 43.68 43.56 43.39 43.61 43.24 43.72 44.30 44.33 45.53 44.42 44.64 44.71 44.50 44.54 44.51 44.65 45.97 47.14 48.28 48.87 49.39 50.67 51.23 50.71 49.93 50.80 51.17 50.78 50.02 49.02 47.61 47.09 46.99 46.83 48.28 50.06 52.86
39.50 40.35 41.72 41.59 41.06 41.51 41.82 42.30 40.81 41.18 42.04 41.66 41.97 43.21 43.40 43.59 43.79 43.90 43.78 43.52 43.30 43.35 42.96 43.95 44.80 44.86 45.70 46.68 47.66 48.79 49.46 49.84 50.87 49.48 48.85 48.28 47.65 46.82 45.64 45.68 45.49 45.34 45.78 45.73
38.10 38.49 38.35 38.99 39.97 41.46 41.33 40.39 39.30 38.46 39.36 39.81 39.28 40.24 41.20 40.95 40.86 41.14 41.85 41.78 41.86 41.54 41.40 41.76 42.67 43.96 43.99 44.18 44.77 45.80 47.66 49.09 46.27 49.07 49.62 48.28 47.26 46.77 45.99 45.42 44.90 44.78 45.07 45.23

GFSNGP_sfc_wetblb_033.txt.gz
Wetbulb
42.50 43.04 43.49 43.90 44.32 45.66 46.08 48.36 46.55 47.89 48.55 51.20 53.38 54.94 56.80 58.56 59.76 60.36 60.91 62.99 65.62 66.49 69.17 70.09 70.83 71.42 71.39 72.02 72.91 73.53 73.54 73.72 74.28 75.19 75.83 75.80 75.80 76.02 76.21 76.44 76.31 76.58 76.31 76.51
39.20 42.22 43.30 42.46 44.79 45.39 45.85 46.43 46.92 48.25 48.48 54.30 55.20 57.10 57.65 58.38 59.81 60.47 59.51 61.89 64.21 67.11 68.25 68.62 70.11 70.64 71.03 71.72 72.21 73.66 73.26 73.02 74.34 75.32 75.62 75.35 75.64 75.73 75.98 76.00 76.11 76.11 76.01 75.93
35.38 41.16 41.55 39.51 43.86 45.50 46.58 48.17 48.06 45.09 49.80 53.30 53.32 54.65 56.07 56.95 59.48 60.65 60.61 61.63 62.87 64.09 66.68 69.20 69.38 70.93 70.77 71.38 72.57 72.90 73.07 73.73 74.12 74.73 74.94 75.23 75.72 75.84 75.66 75.58 76.09 75.71 75.54 75.70
35.56 38.11 31.92 44.55 48.82 48.74 48.52 49.26 50.26 50.23 51.31 53.36 55.10 57.67 59.28 59.97 59.79 60.69 61.81 62.23 63.75 62.51 65.44 69.16 69.05 69.04 71.42 72.16 72.19 72.58 73.02 73.60 74.06 74.13 74.39 74.86 75.13 75.00 75.53 75.65 75.75 75.62 75.37 75.39
33.77 35.16 39.75 41.90 45.75 49.02 49.53 49.31 55.25 53.09 52.39 53.22 54.91 56.24 57.93 59.58 59.77 61.00 62.16 63.59 63.45 63.51 64.59 69.17 69.75 70.98 71.72 71.91 72.65 72.95 73.07 73.53 73.96 73.41 73.08 74.71 74.43 74.73 75.00 75.07 75.33 75.54 76.00 75.82
35.52 31.76 31.66 43.61 48.90 53.36 54.95 44.93 56.01 56.93 56.98 55.56 54.53 51.26 54.06 61.21 60.21 60.00 60.64 62.30 63.82 63.94 65.49 66.37 68.87 70.03 70.99 70.67 72.07 72.57 73.50 73.76 74.56 74.84 74.61 74.65 74.92 75.11 75.63 75.45 75.03 75.25 75.58 76.23
33.35 33.10 37.91 45.72 50.20 55.70 45.20 47.60 57.49 58.60 59.09 58.81 57.17 56.82 60.81 62.26 61.88 62.35 63.52 63.63 63.85 64.95 67.60 68.84 69.69 70.34 70.85 71.69 71.78 73.32 73.96 74.33 75.20 75.79 75.16 75.43 76.01 76.09 76.29 75.03 75.06 74.72 75.09 75.78
33.80 31.66 29.69 47.54 48.52 44.79 53.67 57.15 57.47 58.67 60.22 60.02 60.67 61.86 62.92 61.72 61.88 64.89 67.17 66.55 63.82 65.92 66.35 67.92 70.06 71.16 72.33 72.61 73.64 74.14 74.62 74.86 75.98 76.12 74.87 74.97 75.79 75.05 75.44 75.52 75.68 74.95 74.70 74.42
37.20 36.94 45.84 48.87 50.13 53.90 56.66 55.65 57.45 59.26 60.73 61.17 60.42 60.99 63.45 61.71 67.44 69.33 70.75 70.79 71.92 71.81 70.33 69.67 70.78 72.13 71.62 72.00 73.20 73.95 74.37 75.05 75.27 75.95 75.95 76.74 75.53 74.65 74.18 75.51 74.53 73.86 73.71 73.08
39.63 42.05 45.03 46.70 50.57 52.44 57.84 58.28 59.90 60.45 60.93 60.47 59.88 63.46 63.47 67.09 69.97 70.98 69.55 70.44 71.80 71.52 70.39 69.36 70.84 72.00 72.65 73.18 73.32 73.76 73.87 74.81 75.16 75.06 74.79 76.11 75.08 72.90 73.73 74.14 74.07 74.25 73.98 72.97
39.54 42.43 44.39 46.59 49.32 52.71 55.60 58.15 59.43 59.53 59.13 58.91 63.23 64.88 66.67 68.22 68.12 67.80 67.09 66.54 66.56 65.86 65.12 65.06 66.64 67.16 68.71 71.96 74.34 72.87 72.59 72.66 73.10 74.06 74.01 75.17 75.89 75.53 74.81 76.14 74.15 74.53 74.70 74.42
35.60 44.08 45.35 47.43 51.09 55.10 56.40 57.11 59.56 57.42 58.67 60.86 63.05 63.69 66.52 66.07 65.97 66.31 66.90 67.82 67.76 67.42 66.94 66.33 66.17 65.88 67.13 68.31 70.48 73.60 72.83 71.65 71.01 71.85 72.63 73.65 73.68 69.19 52.45 51.65 54.45 55.54 57.03 69.08
42.79 46.17 46.72 49.22 51.72 54.90 56.46 58.62 58.00 57.18 60.73 61.31 62.33 62.26 62.08 61.87 62.76 61.36 66.17 66.59 66.70 64.99 65.72 66.58 67.94 67.66 67.11 69.14 69.64 69.28 69.43 69.58 68.85 67.62 70.79 70.02 69.80 69.35 68.50 62.06 48.47 49.19 50.28 51.37
46.60 46.70 45.03 47.11 49.37 56.59 57.16 58.71 57.25 58.94 61.20 62.36 62.05 62.39 62.26 61.80 62.83 63.36 64.25 65.93 66.76 67.34 66.13 64.52 64.55 65.10 68.42 68.95 68.85 68.36 68.06 58.05 66.81 68.23 67.58 67.77 68.05 68.54 66.93 65.89 63.90 57.35 49.52 52.78
43.50 45.48 46.46 50.18 55.84 56.83 56.16 56.81 57.13 58.61 60.09 60.57 62.22 62.01 61.68 61.06 61.47 62.66 64.25 64.50 64.58 64.31 64.09 65.00 65.74 65.32 67.98 66.84 66.69 66.21 66.29 66.77 66.90 65.39 63.51 62.84 63.75 63.23 63.62 63.98 64.68 60.84 58.23 53.36
44.90 46.24 47.33 51.05 53.34 54.47 55.33 55.75 56.81 58.58 60.20 60.00 59.45 60.30 61.25 61.90 62.29 62.29 61.83 62.08 61.49 60.86 62.08 63.15 63.26 64.84 67.21 67.60 66.82 66.59 67.06 60.15 63.51 64.78 63.33 61.92 62.53 61.77 61.83 60.74 60.90 60.44 60.58 58.59
47.30 49.47 51.41 50.71 53.35 54.50 54.15 54.96 55.83 56.92 58.24 58.95 59.47 59.92 59.64 57.72 56.60 56.75 58.50 59.38 58.72 58.51 59.35 61.13 62.80 66.26 67.57 67.52 66.16 65.30 65.45 65.99 61.65 68.11 67.02 65.26 63.53 62.10 62.80 60.90 60.22 60.63 60.00 57.83
53.73 53.45 53.57 53.73 53.35 54.72 56.69 57.08 57.88 58.08 57.12 57.64 58.26 57.95 56.48 55.16 53.47 53.95 56.09 57.94 58.62 58.19 58.49 59.83 60.57 64.92 66.51 67.63 68.02 66.95 64.91 64.50 65.81 64.87 64.56 64.10 64.33 63.70 62.99 61.87 61.04 58.89 57.03 53.22
50.78 51.61 53.01 54.71 55.31 55.53 55.56 55.02 56.11 57.40 58.41 58.15 56.39 53.21 53.21 53.11 53.04 53.94 55.35 54.85 56.04 56.10 56.89 59.28 58.32 61.81 64.20 62.78 65.61 67.47 67.08 65.21 64.43 64.92 65.23 60.54 64.20 63.32 63.12 62.22 61.06 58.81 58.28 58.33
50.11 49.38 48.84 49.27 51.01 53.65 54.69 55.84 56.22 55.12 54.66 54.20 54.49 53.21 53.17 53.54 54.60 55.82 55.67 53.60 54.41 54.82 57.57 58.38 61.01 61.99 63.33 63.59 62.00 65.35 66.32 66.21 65.40 64.63 64.55 63.82 62.99 62.06 60.28 55.56 59.39 59.06 59.08 60.68
46.43 46.55 47.46 47.66 46.93 47.48 48.25 49.67 50.98 50.20 50.60 52.05 52.50 52.08 51.69 51.83 51.75 53.69 54.77 52.69 53.26 54.90 56.18 56.00 56.62 60.25 61.03 62.33 63.12 63.77 63.90 63.99 64.32 64.32 63.69 62.85 62.61 63.57 62.55 61.54 60.93 59.61 59.92 59.63
46.86 46.10 46.42 46.68 45.96 45.45 46.00 46.39 48.43 48.97 49.01 50.13 51.57 52.22 52.40 53.65 54.03 52.33 51.49 51.61 52.67 51.00 54.03 54.75 54.65 54.46 57.00 58.28 59.79 60.28 61.93 62.68 61.74 60.30 60.67 61.28 60.64 60.04 60.18 61.19 60.54 59.12 58.17 57.83
45.59 46.26 46.45 46.03 45.68 45.55 46.15 46.42 47.18 48.14 47.57 48.05 48.03 50.08 48.95 48.78 49.44 49.11 47.13 48.41 51.10 49.46 52.79 52.13 51.06 52.61 53.75 55.29 56.46 55.59 55.72 56.93 57.82 56.51 53.64 54.52 57.36 58.26 58.99 58.75 59.81 59.50 57.65 57.15
45.14 45.76 46.17 46.49 46.99 46.53 44.94 45.21 46.66 46.99 47.39 47.48 47.42 47.97 49.29 48.52 47.19 48.10 47.97 46.55 46.51 48.33 48.38 48.53 49.81 50.76 52.55 55.74 54.13 53.71 52.35 53.49 53.52 53.23 54.23 49.20 55.22 56.36 54.88 51.50 52.02 55.58 59.40 58.31
44.82 44.98 45.41 45.87 45.12 44.46 45.36 46.36 46.60 46.58 46.41 45.83 45.68 46.77 46.76 47.06 45.11 45.92 46.58 46.46 45.45 47.93 48.34 47.38 48.04 48.87 51.64 53.17 53.84 50.80 50.29 50.24 49.68 52.07 51.16 50.83 49.61 50.51 51.97 51.86 51.38 52.55 53.52 53.49
42.05 42.88 43.74 43.97 43.77 44.61 45.01 45.68 44.10 44.61 45.21 44.25 44.00 44.39 44.47 45.09 45.16 45.71 45.53 44.72 44.58 44.63 46.14 47.09 47.51 49.28 49.93 49.75 50.59 51.28 51.87 50.29 49.83 49.31 48.48 49.36 50.87 48.20 46.75 48.38 50.05 51.00 50.77 50.66
42.71 40.66 42.90 43.98 44.34 43.97 42.58 42.53 42.61 42.48 43.43 43.35 42.31 42.98 43.01 43.25 42.74 43.53 43.31 44.60 44.22 44.26 44.74 45.65 46.19 46.48 47.32 47.75 47.92 47.84 47.78 48.53 44.68 49.59 51.75 50.75 48.29 47.71 49.26 50.16 48.52 49.34 50.54 51.53

GFSNGP_sfc_wetblb_036.txt.gz
Wetbulb
50.50 48.39 48.31 50.68 50.20 51.08 50.39 51.33 49.08 51.18 51.72 54.41 56.17 57.12 58.29 59.37 60.09 60.38 61.57 63.18 65.16 67.56 69.51 71.70 72.53 74.09 75.61 74.50 75.33 75.52 76.90 75.54 77.16 78.21 78.93 79.08 79.14 79.36 79.73 79.94 79.86 80.16 80.00 79.93
45.47 47.41 46.94 46.51 49.33 50.28 51.15 51.89 51.90 52.31 52.47 57.25 57.97 58.81 58.81 59.42 60.07 60.26 61.31 61.82 62.93 65.47 69.87 71.80 72.58 73.25 73.82 75.25 75.06 75.87 77.23 76.87 77.94 78.66 79.12 78.97 79.07 79.29 79.71 79.60 79.69 79.88 79.64 79.49
43.07 47.38 46.32 43.89 48.05 49.57 50.60 52.33 52.16 49.98 54.16 57.06 56.90 57.36 58.44 59.10 59.96 60.41 61.37 62.78 63.88 65.03 67.77 69.87 71.61 73.35 73.51 75.41 75.56 76.29 76.65 77.68 78.06 78.90 78.69 78.98 79.42 79.43 79.16 79.07 79.52 79.28 79.43 79.53
42.37 44.86 37.10 48.95 53.38 52.62 50.88 52.28 53.63 53.73 55.02 56.35 57.19 58.54 59.45 60.27 60.30 60.66 61.31 62.25 64.12 64.33 65.75 68.09 69.61 69.17 72.25 73.82 76.57 76.46 76.72 77.17 77.97 78.26 78.42 79.15 79.04 78.63 78.98 79.26 79.00 78.97 79.12 79.32
39.10 40.28 45.22 47.20 48.53 49.07 49.58 50.70 54.43 54.22 55.59 56.11 57.13 57.57 58.05 60.03 61.03 62.31 63.07 63.79 64.57 65.06 65.53 68.91 68.36 69.60 70.53 72.45 74.26 74.99 76.41 76.96 77.70 78.08 77.07 77.69 78.36 78.48 78.56 77.89 78.20 78.53 78.32 79.26
40.82 36.99 37.20 47.20 51.16 52.85 53.06 47.71 56.16 57.40 57.67 58.93 60.39 53.31 55.85 60.56 61.35 62.69 63.38 64.29 64.52 65.32 65.63 66.40 69.15 69.99 71.35 71.64 73.15 74.83 76.14 76.47 77.70 78.15 78.14 77.71 78.51 78.79 78.96 78.08 77.74 77.42 77.62 79.21
37.82 37.61 42.60 49.15 52.91 56.01 45.51 52.16 59.29 59.65 60.14 60.36 60.05 62.27 64.99 66.45 66.15 66.77 66.33 65.63 66.83 67.46 66.93 68.47 70.23 71.30 71.44 72.34 72.62 74.84 75.50 75.72 77.27 78.48 78.55 78.75 79.29 79.09 78.67 78.14 77.53 77.91 78.33 78.79
38.00 36.58 35.03 49.03 48.60 46.22 53.05 55.69 58.20 58.64 59.08 59.64 61.11 62.48 63.85 65.33 66.95 67.69 67.41 65.55 67.53 68.63 68.04 70.15 73.15 73.11 73.11 75.29 75.55 76.17 76.63 75.98 77.47 78.42 76.66 76.54 79.00 79.11 78.83 78.04 77.67 77.66 76.82 75.48
40.46 40.52 48.03 50.72 50.19 53.22 53.65 53.36 54.83 57.40 58.75 60.52 60.93 62.03 63.45 64.76 67.29 68.56 67.64 68.37 70.90 69.19 70.38 71.93 74.18 74.00 73.67 76.43 76.61 76.59 76.41 77.02 77.29 77.40 77.41 78.23 78.05 77.40 76.39 77.16 75.49 75.69 75.48 74.59
41.87 44.55 46.10 48.61 50.62 51.88 52.46 52.92 56.05 57.26 57.69 59.23 59.90 61.54 62.80 66.26 68.90 68.40 70.48 72.18 73.22 73.46 72.04 72.94 74.80 75.22 75.69 76.45 76.36 76.12 75.96 76.43 77.09 76.97 76.63 77.30 76.73 76.82 76.15 75.59 75.23 74.64 74.40 72.98
42.73 45.72 47.31 48.34 49.55 50.91 52.08 52.79 53.15 55.00 57.93 58.47 59.33 61.20 63.57 67.42 69.43 70.53 72.67 73.42 73.89 73.27 72.63 72.92 74.20 75.18 75.98 76.07 75.95 75.52 76.01 76.13 76.36 76.34 76.30 76.73 77.47 76.60 76.23 77.52 74.37 75.30 75.74 75.62
39.49 46.32 46.58 47.88 50.63 51.99 50.82 50.55 55.31 56.24 58.21 59.66 60.42 62.12 65.25 67.77 69.98 71.40 71.07 70.77 70.35 70.21 70.12 69.82 70.35 70.90 72.10 74.38 76.41 75.43 74.38 74.21 73.92 74.56 75.62 75.58 75.87 76.08 56.54 55.21 50.88 48.18 48.83 60.71
44.26 48.10 48.81 50.03 51.05 52.31 52.38 53.92 55.55 56.83 60.12 60.69 62.92 63.59 65.81 66.30 68.38 66.42 70.71 70.82 68.93 68.36 69.94 71.33 70.72 70.97 71.83 72.76 72.91 72.56 72.35 73.39 74.11 69.54 72.89 73.35 74.13 74.49 74.19 65.81 49.78 47.97 45.83 47.82
45.62 45.93 44.84 48.04 48.34 51.45 52.77 54.44 56.19 57.42 60.18 62.21 62.29 63.32 63.63 64.47 65.93 68.32 68.40 69.52 69.66 68.19 67.03 67.81 67.81 68.44 71.14 71.85 71.42 71.08 69.67 59.05 70.72 69.68 69.74 70.10 69.25 69.18 69.56 69.43 69.49 72.01 54.06 47.28
43.05 44.87 44.80 47.96 49.93 52.08 53.53 55.19 57.11 58.12 58.42 58.98 62.52 62.71 63.33 64.78 64.43 65.11 67.28 67.98 68.22 68.35 68.62 68.90 67.91 67.05 70.85 69.79 70.55 70.39 70.30 69.44 68.03 69.22 68.97 66.80 66.97 64.25 62.74 62.44 61.47 60.18 58.45 52.58
47.37 44.73 44.76 45.38 48.08 49.05 50.21 56.18 56.32 55.95 58.07 59.34 61.84 62.29 63.92 64.73 63.92 63.41 63.54 64.28 63.30 62.55 64.54 66.72 68.02 69.35 68.45 70.25 70.14 69.85 68.52 61.94 64.67 68.24 68.36 67.02 67.70 66.29 63.87 62.68 61.13 61.15 60.37 58.07
45.11 44.21 46.10 47.84 47.92 50.72 54.32 55.83 55.51 57.03 59.08 59.29 60.10 62.03 62.68 61.82 61.04 60.88 61.56 62.26 62.04 61.65 62.49 62.22 64.40 68.61 70.21 69.92 68.96 68.07 68.46 67.98 62.19 68.93 68.56 67.14 67.75 67.41 66.63 64.85 62.77 62.82 61.38 59.66
50.90 51.41 52.94 53.01 52.52 53.24 55.07 55.85 56.64 55.91 55.88 56.56 56.77 56.72 57.02 59.12 58.98 59.84 60.62 61.50 61.22 60.36 61.35 62.76 63.97 67.01 67.55 68.83 69.38 68.67 67.87 68.59 68.23 67.65 67.96 67.29 67.02 66.91 67.08 68.10 66.66 65.35 64.50 56.96
48.74 48.19 48.80 49.97 53.59 54.58 55.49 54.05 54.38 54.64 54.83 54.34 54.52 53.83 54.75 56.76 56.84 57.72 58.24 57.99 58.24 57.47 57.89 61.30 60.98 64.26 65.65 64.86 66.80 68.96 68.49 68.04 68.08 67.52 66.59 61.13 66.16 66.58 64.83 63.46 62.94 63.41 62.34 63.44
47.99 48.47 48.37 48.36 47.95 49.19 50.47 52.32 54.26 53.56 54.39 55.12 54.31 53.76 55.09 55.82 55.89 54.91 56.03 54.25 55.65 56.26 58.70 58.26 61.98 62.50 64.65 65.06 63.90 67.92 68.32 67.81 67.12 65.55 65.07 66.31 65.85 64.59 62.79 56.18 59.32 60.12 61.49 62.74
46.74 46.86 46.74 47.06 47.08 47.50 48.24 49.22 49.86 50.75 52.15 53.04 53.21 53.01 53.27 53.42 53.19 55.27 53.40 52.42 55.17 56.97 57.13 57.26 57.08 60.25 61.75 62.64 64.71 66.18 65.78 65.19 64.78 65.10 65.14 65.16 65.19 64.76 64.70 63.71 62.81 61.05 60.59 61.50
47.90 47.97 48.34 47.24 46.45 46.72 47.93 49.67 50.38 48.35 49.51 50.20 51.10 52.77 54.50 54.54 53.53 51.73 52.60 51.85 52.95 51.87 55.09 56.40 56.77 55.04 57.80 59.72 61.71 62.35 62.85 62.49 62.22 60.79 60.32 60.96 61.19 62.88 62.96 63.33 63.45 63.88 64.10 64.35
49.01 49.27 48.95 48.49 47.95 47.98 48.60 48.75 49.00 49.75 48.92 49.53 50.49 50.60 50.35 49.69 50.20 49.77 48.55 52.06 51.98 50.22 53.40 54.14 51.59 53.29 53.99 56.17 56.58 57.72 58.05 58.20 57.63 59.40 59.04 57.00 55.29 54.28 53.73 53.09 56.46 58.95 59.26 59.83
48.05 49.00 49.30 50.12 50.16 49.40 47.70 49.26 48.72 48.90 49.68 49.66 50.14 49.15 50.20 49.44 50.58 51.62 50.49 49.09 48.39 49.57 49.88 51.05 51.70 51.05 53.91 56.81 53.19 50.74 50.96 55.01 54.10 52.38 53.84 51.27 56.29 56.18 54.78 54.68 54.03 53.64 56.47 54.24
47.71 48.60 49.14 48.81 48.40 48.31 48.99 49.49 49.39 49.43 48.62 48.61 48.67 49.27 49.71 49.72 48.44 48.57 49.93 50.06 46.81 49.98 50.79 48.72 49.52 50.16 53.76 54.12 54.89 54.07 50.74 50.06 50.08 51.05 53.35 54.53 54.50 55.13 55.84 55.80 55.71 55.89 55.00 54.95
45.09 45.41 46.90 47.98 47.21 47.80 48.72 48.23 46.42 46.91 47.49 46.57 46.76 47.26 47.35 48.02 48.23 48.82 49.10 47.97 49.20 48.43 49.35 49.46 49.29 50.82 51.70 51.30 52.17 52.33 51.71 50.84 50.87 49.90 49.47 49.55 51.63 52.76 53.54 54.85 55.60 55.67 55.63 55.04
45.01 42.27 45.70 46.60 47.28 47.52 46.72 45.67 45.80 45.21 46.03 46.02 45.48 46.56 46.93 46.98 46.63 46.44 45.05 46.65 46.73 46.97 47.52 47.86 47.94 47.52 49.62 49.67 49.59 50.10 50.63 51.21 45.94 51.13 50.49 50.83 50.30 49.32 48.73 48.78 49.53 52.21 54.57 54.26

GFSNGP_sfc_wetblb_042.txt.gz
Wetbulb
51.97 53.35 54.11 51.93 51.08 51.84 51.29 53.03 50.25 51.88 52.75 55.85 58.75 59.50 61.39 62.90 64.95 65.60 67.39 68.03 70.11 70.24 72.57 73.16 74.26 75.03 75.57 76.01 76.23 76.59 75.88 77.11 77.06 77.91 78.87 78.69 78.57 78.87 79.29 78.70 78.87 78.45 78.27 78.82
49.73 52.68 53.02 51.83 52.27 52.22 52.39 52.11 52.95 53.47 53.46 58.36 60.52 62.01 61.78 63.19 63.56 64.20 65.81 66.45 68.34 69.06 73.22 74.52 76.20 75.36 75.61 75.86 76.68 76.89 76.52 76.38 77.30 77.55 77.91 78.48 78.40 78.37 78.77 78.97 78.73 79.12 78.39 77.84
45.09 51.04 51.60 48.99 52.54 52.72 53.05 54.04 53.40 52.05 56.44 59.27 59.36 60.03 61.08 61.69 62.60 62.43 61.92 64.62 67.01 69.08 71.86 73.89 74.06 77.54 76.50 76.13 76.60 77.04 76.57 77.53 77.49 77.66 77.74 78.09 78.40 78.44 77.99 78.39 78.86 78.62 78.62 78.50
44.17 48.29 41.75 52.34 56.58 55.62 54.29 54.75 55.57 56.37 58.19 60.41 61.03 62.38 62.79 62.91 62.46 64.21 63.92 65.05 69.08 65.16 68.53 71.67 69.15 69.44 74.35 77.42 77.13 76.54 77.96 76.95 78.21 78.37 77.68 78.40 78.39 78.12 78.38 78.32 78.41 78.18 78.38 78.57
42.69 44.21 49.23 51.76 54.25 54.04 53.02 53.41 56.61 57.07 58.05 58.58 60.07 60.72 61.51 62.54 62.80 62.72 64.83 66.96 66.78 67.52 68.12 74.55 73.13 74.71 73.89 74.55 76.81 77.07 76.20 77.93 77.22 78.62 77.89 78.11 78.10 77.93 78.32 78.39 78.27 78.48 78.72 78.52
43.68 41.36 41.31 51.03 55.00 56.94 56.66 49.76 58.14 57.53 57.20 57.63 58.44 54.29 60.62 66.33 66.63 66.86 67.97 69.58 70.64 70.98 70.89 71.25 73.65 72.66 74.89 73.96 75.30 75.63 76.19 76.38 78.48 77.27 78.15 77.99 78.20 78.34 78.76 78.83 78.57 78.62 78.53 78.86
41.06 40.99 46.88 52.73 53.94 56.52 48.42 50.07 58.55 59.99 60.28 58.84 58.80 61.93 64.40 65.50 65.68 67.12 68.33 69.62 71.22 71.90 71.68 72.58 73.37 74.03 74.48 75.33 72.50 75.70 77.21 77.52 77.67 78.70 77.64 78.53 78.81 79.19 78.97 78.63 78.60 78.40 78.31 78.70
41.18 40.09 39.36 52.16 52.33 49.39 54.72 56.22 56.01 57.05 57.69 58.87 60.74 61.62 61.96 62.58 64.36 65.57 66.74 68.11 71.05 71.38 72.50 73.44 73.54 74.21 75.87 75.27 79.38 80.55 77.88 78.12 78.19 79.03 78.19 78.26 78.93 79.39 79.29 78.82 78.19 77.88 77.64 77.81
42.84 43.24 53.20 53.23 52.30 53.99 54.41 54.37 54.81 54.97 55.38 56.82 57.49 57.53 57.94 60.37 63.13 64.22 66.43 67.69 70.30 72.44 72.25 73.50 73.80 77.35 76.75 77.18 81.00 80.96 81.18 80.32 78.53 79.26 79.15 78.39 78.72 78.53 78.37 78.75 77.83 77.37 77.00 76.88
43.45 46.57 48.71 50.30 52.25 52.89 53.31 52.80 53.75 54.20 54.19 54.57 54.94 55.79 55.99 58.96 61.52 63.40 65.77 67.24 68.86 71.78 74.39 75.99 80.42 77.36 79.22 79.58 79.91 80.93 79.60 81.04 79.77 79.06 78.43 78.67 78.67 78.41 77.86 77.64 77.51 77.33 76.79 76.29
42.81 46.51 48.62 49.59 50.71 51.66 52.41 53.10 53.09 53.93 54.04 54.06 54.54 54.80 55.77 59.11 62.13 63.49 66.38 67.45 69.84 72.21 75.85 76.81 77.97 78.83 78.98 80.11 79.89 79.26 80.02 79.40 79.27 78.44 77.97 78.50 77.95 77.20 77.74 78.37 74.86 77.37 76.99 76.41
39.49 46.31 46.46 47.91 51.14 52.76 52.28 52.16 53.50 53.63 53.98 55.02 55.43 56.37 58.06 58.77 61.57 64.45 66.24 67.67 70.45 74.51 74.71 75.49 75.33 76.49 77.30 78.39 79.83 79.73 78.20 77.45 76.96 76.73 77.55 77.31 77.53 76.61 51.00 53.57 50.61 48.37 49.98 62.73
41.72 45.73 47.32 48.66 50.35 51.36 51.85 53.01 53.70 53.84 55.44 54.44 55.81 56.28 57.26 57.71 59.30 61.42 65.44 67.58 70.47 73.64 74.01 74.35 74.36 74.14 75.00 76.72 77.77 79.15 78.45 78.26 76.64 74.40 76.99 76.76 76.97 76.69 74.65 55.91 46.34 47.28 46.19 47.06
42.88 42.90 42.72 45.89 46.35 50.02 51.26 52.45 53.45 54.24 54.84 55.63 55.43 56.37 56.02 57.09 58.22 60.35 64.81 66.53 69.91 72.87 72.12 71.55 71.55 72.16 74.14 74.83 75.42 74.09 75.44 60.34 76.69 76.54 75.23 75.27 76.10 76.11 76.62 73.41 71.72 70.38 50.55 51.04
50.10 51.15 46.63 48.13 49.83 49.56 50.65 50.64 50.69 51.50 53.02 54.61 55.87 55.68 56.49 57.20 59.15 61.79 65.34 67.15 70.56 71.60 70.73 69.97 70.01 71.06 73.40 73.25 73.64 74.16 75.17 73.46 73.82 71.61 70.56 69.09 71.35 70.55 70.14 69.41 68.93 68.40 67.92 58.02
51.28 51.10 50.73 48.55 47.18 49.25 49.35 49.88 49.62 50.49 52.19 53.58 55.03 55.79 56.69 58.79 62.07 62.75 64.08 64.95 68.00 66.85 69.21 69.16 68.78 70.60 72.48 73.12 72.74 70.91 70.38 64.46 67.29 70.44 69.87 69.28 69.25 67.68 67.49 67.39 67.10 66.86 66.33 65.19
47.71 45.75 45.96 45.98 45.78 47.59 48.00 50.06 50.77 51.77 53.36 54.02 55.79 57.18 59.02 58.92 61.67 62.84 63.75 65.24 65.72 67.81 68.12 67.64 69.02 70.29 72.65 73.31 71.80 69.84 69.17 69.72 66.18 69.78 69.11 69.22 68.47 67.05 66.97 66.83 67.01 67.49 65.62 60.59
49.41 49.81 49.48 50.03 48.43 48.14 49.03 51.54 52.89 53.18 53.96 55.17 56.56 58.07 58.17 58.02 59.62 57.05 58.93 62.76 63.66 63.67 64.07 66.96 69.59 68.27 69.77 70.17 71.89 70.54 69.80 69.82 69.20 67.70 68.65 67.97 68.45 68.37 67.82 66.80 66.24 65.60 65.25 59.83
48.82 48.59 49.38 49.53 50.00 49.98 50.35 51.37 51.38 51.54 51.89 52.83 52.38 51.67 51.60 51.50 52.16 52.67 53.06 54.29 53.85 53.80 55.39 62.04 62.70 64.78 66.78 66.31 67.55 67.73 67.15 67.33 68.05 67.79 67.43 63.63 65.52 65.44 64.41 63.43 63.17 63.10 63.38 63.75
48.02 49.15 49.04 49.08 49.04 48.75 48.96 49.83 50.14 50.74 50.75 49.50 48.75 48.26 47.85 48.77 50.35 51.31 51.99 50.38 51.47 53.00 54.52 55.23 60.00 62.97 62.97 63.69 63.80 65.74 66.18 66.02 66.02 64.90 63.63 65.23 65.26 63.85 63.13 59.23 62.86 63.54 63.38 63.50
48.44 48.83 48.04 47.62 47.94 49.03 49.32 49.54 50.03 49.81 50.26 50.67 48.76 47.75 47.37 47.78 48.14 48.84 48.21 47.57 49.82 51.96 54.26 54.37 54.49 56.33 59.97 60.69 61.10 61.46 61.40 61.72 62.04 61.98 61.77 61.77 62.24 62.24 61.61 60.57 60.70 59.50 59.23 59.86
47.52 48.56 48.42 48.54 47.30 47.42 48.26 49.08 48.52 48.84 50.20 49.02 48.48 47.79 47.26 47.40 47.78 47.60 48.16 47.26 48.88 49.83 51.08 52.71 53.11 53.88 55.57 57.13 56.07 55.87 57.56 59.90 59.83 59.97 58.94 58.31 57.98 57.72 58.08 57.53 57.29 56.94 56.81 56.11
45.96 48.03 49.66 48.52 48.09 47.72 48.29 48.01 48.22 48.31 47.09 47.40 47.90 48.15 47.29 47.69 48.32 47.05 45.88 48.63 50.05 48.52 49.45 50.70 52.21 52.82 52.40 52.71 52.53 52.04 52.35 51.89 52.34 53.14 56.64 57.22 56.17 55.28 54.40 54.61 54.55 54.41 54.50 54.09
46.50 48.46 48.37 50.50 50.47 49.46 48.03 48.91 48.34 48.79 49.65 49.07 48.04 48.74 47.88 46.27 47.59 49.32 48.53 48.09 48.14 48.09 48.44 49.11 50.02 50.66 52.94 52.50 51.31 50.74 50.53 50.23 49.94 50.64 51.16 49.66 52.36 52.60 54.60 54.85 53.20 52.74 51.40 49.33
47.15 49.06 48.85 48.70 47.87 47.66 48.63 48.28 48.17 48.35 47.77 47.36 47.82 48.23 48.19 49.02 47.28 47.34 49.06 48.15 47.27 48.71 47.80 47.95 49.49 49.88 51.35 51.62 52.40 52.04 51.10 50.02 48.91 48.79 48.66 49.01 48.92 48.61 49.62 50.39 51.26 52.23 52.81 51.08
47.07 46.71 47.52 49.62 47.61 47.22 47.33 47.64 45.61 45.37 45.80 46.17 46.39 46.56 46.91 47.15 47.08 46.72 48.26 47.42 48.15 47.42 47.47 47.05 47.10 49.13 49.35 49.53 50.16 50.59 50.46 51.26 51.73 50.96 49.86 48.81 47.70 47.11 46.02 45.40 45.00 44.61 45.71 46.65
46.94 44.64 46.91 46.91 47.25 46.83 46.26 45.72 44.97 44.18 44.30 45.48 44.64 46.12 45.88 45.72 45.58 45.85 45.24 46.31 46.50 46.12 46.15 46.29 46.54 46.73 46.93 47.33 47.38 47.90 48.57 48.70 44.83 49.51 51.16 51.25 50.68 49.13 47.05 45.70 44.66 43.72 43.88 43.06

GFSNGP_sfc_wetblb_045.txt.gz
Wetbulb
46.29 48.78 49.67 49.62 49.01 49.04 46.47 46.33 44.94 45.85 46.78 50.48 52.52 55.31 56.85 58.09 59.37 61.12 61.07 65.40 67.18 68.89 69.69 70.57 70.69 70.58 71.01 71.47 72.39 73.15 74.46 75.03 75.27 75.88 75.91 75.94 75.83 76.17 76.08 74.69 75.49 74.99 75.77 75.11
43.89 49.41 49.99 49.48 51.08 50.27 49.41 48.88 48.16 48.32 47.11 53.86 55.67 57.54 57.74 57.99 58.98 59.24 60.94 63.60 63.85 66.31 68.83 70.24 71.17 71.14 71.39 71.58 71.99 72.95 73.52 74.39 75.54 75.75 76.16 75.87 76.02 75.96 76.26 76.12 75.14 75.79 74.93 75.20
37.71 47.18 48.82 44.42 49.80 50.12 49.84 50.96 49.63 46.44 49.22 54.43 54.23 56.78 56.25 56.67 57.63 57.20 57.67 59.00 61.60 63.12 65.09 69.30 71.42 72.34 72.14 72.47 73.01 72.69 72.62 73.29 74.80 75.56 75.56 75.87 76.31 76.22 76.05 76.17 76.57 75.37 75.69 75.49
37.54 43.79 36.20 47.13 53.87 54.07 51.35 51.76 51.66 50.95 55.22 55.18 55.80 57.68 58.10 57.94 57.17 58.30 60.30 60.70 60.26 63.24 62.83 63.10 67.63 72.69 73.02 73.28 72.99 73.01 72.75 72.94 73.47 74.83 75.01 75.54 75.74 75.71 75.97 76.23 76.24 76.41 76.03 76.34
35.30 40.11 43.81 49.03 50.01 49.90 49.60 50.03 54.79 55.27 56.24 57.79 59.37 60.42 59.98 62.89 63.42 63.15 63.40 64.49 65.06 65.94 66.10 66.18 66.00 64.92 70.60 73.09 73.14 73.01 73.25 73.48 73.97 74.57 74.59 74.97 74.97 75.59 76.05 75.97 75.79 76.09 76.67 76.52
38.85 37.50 38.22 44.22 50.08 51.44 52.96 44.23 52.98 54.86 57.42 57.07 59.13 53.86 56.06 61.45 62.85 62.78 64.35 65.37 66.41 66.24 66.63 66.18 66.29 67.27 68.42 70.64 72.68 72.21 72.84 74.12 74.98 75.17 75.25 74.92 75.45 75.67 76.26 76.29 76.06 76.25 76.24 76.77
37.18 36.50 41.77 45.27 49.34 53.65 44.11 44.66 51.57 51.81 53.69 54.29 52.29 54.55 56.36 60.15 61.13 63.06 63.52 63.95 65.42 66.95 67.64 66.98 67.62 66.78 67.24 66.27 67.90 71.95 73.23 73.39 74.88 75.16 75.38 75.89 75.70 76.31 76.20 76.23 76.19 76.01 76.01 76.68
36.21 36.60 34.50 47.96 48.15 42.95 48.88 51.56 51.59 50.78 51.33 51.86 52.53 53.14 53.88 56.18 58.77 60.05 61.78 63.44 64.63 64.54 66.05 68.26 68.26 66.55 64.11 67.33 67.86 72.09 72.47 72.81 72.82 74.59 74.79 75.66 75.40 76.03 76.36 76.08 75.73 75.44 75.56 75.86
37.51 37.03 45.91 48.44 47.46 49.97 50.45 49.09 48.95 49.35 50.06 50.78 51.39 51.83 52.66 52.64 57.09 58.82 59.99 62.75 64.09 64.11 66.58 67.83 70.12 67.74 65.78 67.93 72.26 71.82 72.32 73.12 73.49 74.07 75.32 73.41 75.56 75.03 75.99 76.02 75.89 75.31 75.41 75.21
37.57 41.27 43.29 46.85 47.36 48.14 48.06 48.68 49.55 49.66 50.01 50.59 49.60 51.37 51.33 52.13 56.52 57.51 60.30 61.17 63.38 64.73 66.63 70.14 73.64 73.03 72.73 73.72 73.20 72.44 73.42 72.40 74.49 74.73 74.95 74.34 75.49 76.08 76.19 76.19 75.72 75.62 75.32 74.97
36.69 40.40 41.62 45.63 45.18 46.41 47.16 48.26 49.91 51.26 51.16 50.15 50.41 50.91 51.87 52.47 54.39 55.00 56.01 61.40 62.14 64.47 65.53 70.15 71.32 73.77 73.64 74.30 73.97 73.93 73.90 75.41 75.20 74.93 74.75 75.05 70.95 65.11 74.34 75.75 73.36 75.66 75.77 75.17
33.77 39.04 38.85 40.09 43.77 45.63 44.77 45.70 47.74 49.36 50.12 52.45 52.14 50.21 52.46 51.99 52.81 53.21 53.73 53.93 60.82 62.75 65.11 70.28 69.87 70.62 71.33 72.32 72.82 73.15 74.20 74.62 74.53 73.87 74.34 74.89 69.81 61.48 49.58 49.98 49.27 49.74 49.56 65.19
38.53 42.78 42.76 43.07 44.49 45.97 45.18 46.28 47.30 48.98 50.17 50.42 51.32 52.35 51.39 51.05 51.80 53.42 53.59 53.42 60.18 60.89 65.13 67.60 69.86 69.33 70.25 70.76 72.39 71.66 70.46 73.72 73.22 71.47 73.09 73.86 74.63 72.48 62.42 54.86 46.88 45.26 46.39 46.79
45.08 46.28 43.98 43.82 42.29 46.60 47.96 48.70 49.69 50.52 50.69 50.86 51.43 52.31 52.00 50.78 52.14 52.80 53.87 54.85 61.51 63.67 64.53 67.92 68.46 68.94 69.75 70.16 69.92 70.72 69.23 62.46 69.98 72.20 70.56 72.89 72.87 73.23 68.30 63.17 62.64 57.37 49.89 50.25
48.81 49.86 45.65 46.19 46.91 47.92 49.31 49.53 47.82 47.24 48.28 49.25 51.00 51.15 51.47 51.20 50.55 51.96 55.55 61.11 62.10 62.30 64.43 69.02 67.78 67.68 69.56 70.04 69.51 69.66 70.77 69.46 67.02 66.95 67.17 66.45 67.01 67.10 68.27 67.66 65.45 62.62 58.41 51.41
48.23 48.47 48.19 46.47 47.13 48.99 49.18 48.96 46.86 46.96 47.98 48.44 49.15 50.11 51.09 53.45 53.50 54.66 56.40 59.82 60.45 60.17 63.55 67.05 66.58 67.28 68.39 68.84 69.36 68.04 67.42 63.44 64.67 66.19 65.76 65.38 65.44 64.86 64.16 63.66 62.95 62.46 61.30 60.44
44.03 44.50 46.78 45.91 45.89 47.24 48.00 47.70 47.36 47.68 49.01 49.20 48.81 50.20 51.82 52.66 52.88 53.98 55.37 56.77 62.51 60.97 58.26 59.07 63.49 67.48 68.27 68.86 68.48 66.17 66.45 65.52 65.91 67.41 65.72 64.87 63.99 63.56 63.40 63.35 62.75 61.66 58.41 54.54
46.65 47.39 47.28 48.50 48.36 48.17 49.16 50.06 49.75 49.16 48.55 50.68 51.74 52.52 51.87 52.17 51.04 52.32 53.90 55.09 54.41 54.09 53.35 54.52 57.13 62.56 66.14 67.16 66.65 67.71 65.71 65.88 65.21 64.27 64.45 64.53 63.63 63.33 62.37 61.74 61.24 60.39 57.60 56.07
46.65 46.03 46.89 47.53 47.69 47.74 47.79 47.90 48.80 48.65 48.76 50.96 52.91 50.69 51.64 52.00 51.43 50.52 51.36 51.11 51.44 51.24 52.15 53.99 56.72 60.72 62.01 63.23 64.38 66.16 65.12 63.57 64.69 64.00 62.87 61.15 61.78 61.63 61.15 60.88 61.17 61.81 62.18 62.16
47.11 46.64 46.53 46.21 47.40 47.69 47.01 47.77 47.26 46.49 47.32 48.00 48.44 48.14 47.60 48.18 49.45 49.64 49.34 47.66 49.22 52.31 53.34 53.05 53.45 55.16 56.10 59.74 62.40 62.95 62.81 62.78 62.39 62.80 62.15 61.75 61.04 60.72 58.93 55.83 59.46 59.29 58.53 58.95
47.00 46.75 45.81 45.47 45.57 46.85 47.69 47.33 47.51 46.26 46.37 46.44 46.36 46.51 46.60 47.08 47.32 47.73 47.23 46.43 48.28 51.57 52.97 53.11 52.67 52.81 54.03 54.39 56.74 59.84 59.88 59.43 59.45 59.11 59.01 58.37 57.62 57.13 57.74 57.30 56.57 56.05 55.80 55.63
43.62 46.36 46.66 46.02 45.32 45.51 46.46 46.81 46.90 46.10 46.73 47.17 46.71 46.26 45.80 45.62 46.53 47.10 47.32 46.40 48.06 50.01 51.76 52.16 51.91 53.17 52.70 53.48 52.73 52.40 52.04 53.77 56.67 55.87 55.20 55.46 54.34 53.78 53.45 53.67 53.27 53.70 52.88 52.30
44.14 45.42 47.27 47.34 46.40 46.27 47.10 46.99 46.49 46.62 45.47 45.10 44.44 45.07 46.03 46.24 45.99 44.93 44.27 47.33 47.60 47.63 49.23 50.44 52.09 51.70 51.74 51.08 50.94 50.60 49.93 50.15 51.02 51.52 51.72 52.42 52.11 51.20 50.95 49.97 48.73 48.65 48.76 47.68
44.87 46.36 46.44 48.72 47.66 45.84 43.92 44.76 45.41 45.94 46.11 46.65 46.87 45.88 45.05 44.81 45.72 47.80 48.25 48.61 47.21 46.57 46.54 48.92 49.95 51.72 51.23 50.67 49.73 49.56 49.47 49.23 48.93 48.72 48.29 46.50 49.06 48.26 50.34 50.38 48.47 47.39 46.02 44.41
45.33 47.39 46.26 44.57 44.00 45.10 44.20 43.69 43.05 42.54 44.42 43.74 43.49 44.13 43.79 44.72 43.49 46.00 45.90 45.92 46.61 45.79 44.99 47.59 48.92 48.75 49.09 50.72 50.29 49.43 48.85 48.76 48.80 48.51 48.05 47.26 46.46 46.23 45.32 44.76 43.54 44.94 45.79 45.39
44.69 44.22 45.87 46.31 43.75 43.70 43.77 42.78 41.42 41.56 41.82 41.88 42.56 42.94 43.21 43.67 43.72 43.65 44.13 44.88 44.25 45.06 43.90 44.31 44.81 45.06 44.76 45.07 46.34 46.01 45.47 47.20 48.66 47.87 47.31 47.13 46.13 44.90 43.67 42.89 42.41 42.20 41.46 41.24
43.19 42.74 42.55 42.44 43.19 43.90 43.44 42.01 40.54 40.45 41.62 41.21 40.57 42.05 42.83 43.17 43.18 43.16 43.49 43.47 43.49 43.44 43.17 42.63 43.38 44.08 43.63 43.67 44.73 44.67 44.50 44.65 42.39 45.58 46.73 46.67 46.27 45.76 44.42 43.59 43.32 43.11 43.24 42.59

GFSNGP_sfc_wetblb_048.txt.gz
Wetbulb
35.98 39.11 41.73 42.55 46.56 46.91 43.38 43.69 41.84 43.49 43.37 46.51 47.82 51.27 52.61 53.49 55.31 60.24 64.49 66.40 67.59 67.76 68.09 68.44 68.34 68.66 69.79 70.75 71.49 73.07 72.97 72.92 73.10 73.36 73.96 74.50 74.31 73.58 73.16 72.86 73.66 72.09 72.75 73.16
31.95 41.83 44.19 43.95 49.04 48.80 46.70 46.58 44.96 44.44 44.30 48.35 51.82 54.58 55.26 56.70 57.88 59.94 63.45 66.61 67.95 68.40 68.59 68.69 68.76 68.67 69.33 69.95 71.02 72.41 72.68 72.96 73.52 73.88 73.94 73.91 74.53 74.48 73.93 73.51 72.50 73.45 73.42 73.44
30.40 42.47 45.54 41.86 43.93 48.00 47.34 46.98 46.17 43.70 46.09 51.28 52.99 55.76 56.93 53.43 55.93 57.58 59.95 65.55 67.85 68.43 68.84 69.34 69.39 69.50 68.88 69.65 70.76 71.43 72.43 72.90 73.56 73.74 74.15 74.33 74.49 74.55 74.41 74.31 74.01 72.41 73.27 73.80
31.11 38.17 34.88 43.40 47.18 47.52 47.84 48.12 48.74 50.95 52.60 54.50 57.80 58.76 59.38 60.85 61.25 61.60 62.34 62.55 62.46 62.59 64.47 68.25 70.16 70.34 70.16 70.13 70.15 70.47 70.81 72.76 73.43 74.05 74.13 74.75 74.52 74.27 74.45 74.98 74.96 74.63 73.54 73.77
32.00 36.38 42.19 43.33 44.35 43.88 41.91 43.71 47.80 48.95 54.88 58.36 58.83 58.48 57.32 59.88 61.36 61.27 62.50 63.21 63.20 63.91 63.87 64.56 66.02 69.50 70.58 70.25 70.21 70.10 70.29 70.70 73.01 73.71 74.38 74.51 74.30 74.55 74.95 75.10 75.00 75.29 75.46 74.97
32.88 34.86 34.52 39.76 45.79 49.01 49.65 38.41 47.68 48.58 48.97 52.49 55.65 49.48 51.65 56.66 60.32 60.77 62.28 63.16 63.95 65.59 66.66 64.97 64.25 65.72 68.82 70.38 70.62 70.27 70.62 71.02 71.80 72.81 73.99 74.18 74.53 74.64 75.47 75.40 75.24 75.64 75.41 76.06
34.74 36.78 39.44 42.14 45.79 50.27 38.72 40.80 47.57 48.18 48.78 48.19 46.33 48.04 50.78 56.70 57.60 60.46 61.32 62.60 63.28 64.17 64.99 65.84 66.33 63.35 64.74 67.54 69.59 71.58 71.84 72.18 72.54 72.48 72.73 74.14 74.34 74.86 74.81 74.92 75.10 74.78 74.88 75.34
33.34 34.79 33.05 44.32 44.65 38.73 41.42 45.90 46.80 47.40 47.93 47.32 48.10 50.32 51.20 55.14 55.73 58.14 59.60 61.63 63.76 64.69 65.72 67.21 68.29 64.69 62.99 63.78 65.47 68.93 71.57 71.67 72.52 73.48 73.47 74.06 73.68 74.08 74.40 74.43 74.33 74.14 74.19 74.44
34.23 35.61 43.57 44.93 45.53 47.49 46.12 44.37 44.15 45.47 47.72 47.95 48.00 49.15 50.92 52.34 52.94 53.50 57.37 58.70 62.24 63.34 65.81 68.83 72.58 67.54 69.17 70.37 70.66 71.68 68.55 70.00 70.80 72.39 72.99 73.56 73.66 73.45 73.68 74.27 74.21 73.88 74.08 73.93
32.95 37.37 39.12 41.59 44.97 44.88 44.77 44.14 44.63 45.99 46.90 48.85 47.34 49.61 49.94 51.00 51.30 51.82 52.79 53.16 58.83 61.83 62.97 65.50 70.23 71.53 71.66 71.92 72.25 72.28 69.92 69.74 70.92 71.09 70.97 71.93 74.06 74.23 74.33 74.38 74.28 74.11 74.14 73.95
34.83 36.40 39.77 42.76 43.81 43.97 44.80 45.92 45.67 46.29 46.30 48.24 48.66 48.38 49.60 49.37 49.86 50.53 51.22 52.68 55.94 59.55 61.44 63.21 68.39 69.08 70.05 70.28 71.37 71.04 71.76 72.37 72.01 72.28 70.60 71.44 63.13 63.51 71.93 72.18 71.44 74.74 74.74 75.04
33.83 39.09 39.20 39.55 42.55 45.10 44.83 44.82 45.80 45.31 45.30 47.00 49.04 48.34 50.05 49.01 49.39 50.14 50.90 51.99 53.79 57.57 61.43 63.02 65.08 68.08 68.90 69.34 70.35 69.76 69.36 70.57 72.46 73.07 71.85 68.89 61.97 58.17 49.14 47.89 46.35 49.97 56.68 66.76
42.79 43.79 42.63 43.06 43.98 45.70 46.09 46.43 47.04 47.00 46.53 45.66 48.45 49.02 49.15 48.29 48.58 51.21 50.34 52.22 55.11 58.18 60.75 62.03 64.65 67.43 68.13 68.44 68.48 68.53 68.12 68.17 67.64 69.73 72.67 71.86 65.96 63.97 60.06 54.55 48.67 45.42 45.26 46.71
46.51 47.61 43.76 45.16 44.97 47.57 46.36 47.78 49.32 49.81 48.71 47.86 48.79 49.21 48.88 48.72 49.67 49.49 49.60 53.16 58.85 60.24 59.84 58.35 62.68 66.76 68.04 68.56 67.67 67.17 67.61 62.70 67.52 69.48 71.15 72.44 72.79 67.09 62.22 61.12 58.66 56.88 51.00 48.50
45.82 47.38 45.99 47.37 47.21 46.95 47.95 47.97 48.04 48.62 48.61 46.65 47.58 48.19 48.47 48.39 50.09 51.02 52.75 55.44 57.62 58.89 58.57 58.72 59.96 64.82 67.47 67.94 67.45 67.52 67.00 67.09 66.20 66.01 65.49 66.52 68.35 68.80 65.06 64.49 60.29 58.14 54.97 51.69
45.48 46.04 47.16 46.94 47.31 47.66 47.48 47.83 46.82 46.06 47.28 47.18 46.97 47.60 48.37 48.65 50.39 51.57 53.65 55.03 54.26 55.30 57.10 56.96 59.61 62.98 65.64 66.47 66.58 66.89 66.04 63.30 64.20 66.42 65.91 64.81 65.33 65.60 66.23 64.27 61.86 61.34 61.16 60.03
42.60 42.23 44.34 44.88 45.06 45.78 46.15 46.57 45.96 46.13 47.14 47.67 48.47 49.15 48.00 50.46 50.31 50.19 51.65 52.41 52.72 52.25 52.21 52.49 53.61 56.50 60.67 65.79 66.00 66.64 65.32 64.60 64.53 65.16 65.48 65.35 65.24 64.61 64.45 63.62 62.30 60.29 58.42 57.26
45.63 45.70 45.88 46.25 45.15 44.48 45.10 45.74 45.79 45.81 46.77 47.91 49.32 49.43 49.22 49.68 49.75 51.33 49.73 50.68 51.32 51.57 51.53 52.82 55.78 57.55 58.55 59.60 62.83 66.62 65.64 64.11 64.35 63.88 63.00 62.24 62.35 62.63 62.56 61.95 60.00 58.82 57.85 53.21
46.63 45.63 45.86 46.50 46.43 45.95 45.28 44.85 44.97 45.37 45.92 47.59 49.98 49.40 49.21 49.09 49.54 50.16 50.56 49.89 50.33 50.73 51.71 52.47 54.87 53.54 53.13 56.28 61.74 62.71 63.88 63.52 62.65 61.79 61.24 58.92 60.14 60.21 60.40 60.27 59.49 59.09 59.43 59.65
45.61 45.80 45.76 45.71 46.38 44.94 44.41 45.19 45.06 44.94 45.76 45.44 45.97 46.68 46.28 47.06 48.37 49.60 49.57 48.03 48.50 51.25 52.92 53.15 53.20 52.33 52.15 53.82 59.31 59.84 61.80 62.38 61.54 61.32 60.88 60.21 58.77 57.80 56.96 53.88 56.16 56.12 56.14 56.24
46.13 45.01 44.82 45.01 44.56 45.04 44.93 44.57 43.68 42.99 43.96 45.26 44.40 44.08 45.33 46.79 46.70 46.54 46.59 46.24 47.67 50.43 52.07 53.02 52.54 52.30 52.35 52.04 52.93 54.41 57.65 58.47 59.59 58.89 58.26 57.27 56.28 55.56 55.09 54.18 53.77 53.18 52.39 52.44
40.96 45.19 45.59 45.31 44.93 44.80 45.23 44.82 44.13 43.68 43.34 43.01 43.70 44.83 43.90 43.41 45.52 46.34 46.30 45.59 47.62 49.59 50.90 51.00 51.49 53.20 52.85 52.80 51.35 51.22 51.83 52.46 54.33 54.71 54.33 54.06 52.75 51.91 51.13 50.58 49.52 48.72 47.85 47.55
41.14 42.74 44.93 45.16 44.74 45.05 45.83 45.53 45.65 45.01 43.97 43.74 43.06 43.47 44.28 43.98 43.87 43.30 42.52 46.47 46.97 48.46 49.45 50.83 51.48 51.33 51.49 51.11 50.95 50.19 49.85 49.15 48.60 48.81 50.56 50.38 49.23 47.69 46.47 45.47 45.08 44.67 44.28 43.99
40.37 42.88 42.08 45.29 42.76 41.04 39.63 40.26 41.49 44.54 45.28 45.31 44.61 44.90 43.90 43.58 45.29 46.57 46.00 45.82 46.39 47.16 47.99 48.29 49.50 50.56 50.05 49.64 49.91 49.72 49.39 48.87 48.23 47.78 47.16 45.37 46.16 46.88 47.16 45.85 43.82 43.02 42.35 41.14
39.65 40.85 41.12 40.16 40.08 39.02 39.13 39.76 39.97 40.45 41.43 40.88 41.04 42.11 41.56 42.92 41.95 43.35 46.84 45.42 45.68 45.40 46.19 47.19 47.40 47.38 46.06 46.13 48.43 48.25 48.29 48.26 47.94 47.22 46.50 45.26 44.32 43.62 43.91 43.20 42.45 42.65 41.66 41.06
36.81 36.24 36.31 37.35 37.35 39.00 38.54 38.40 37.83 38.73 39.18 38.35 39.52 40.79 41.61 41.69 41.71 41.67 41.87 43.18 42.48 43.53 43.79 44.20 44.56 44.58 44.28 44.03 44.21 44.09 46.13 48.29 47.59 46.75 46.04 45.29 44.34 43.68 43.17 42.71 41.72 41.04 41.02 40.28
36.38 38.12 35.96 36.54 37.30 37.35 38.18 37.65 37.76 37.48 37.85 37.68 38.00 39.66 41.15 41.93 41.01 40.62 41.79 41.24 41.47 41.56 42.18 43.29 43.66 43.76 43.71 43.94 43.91 43.96 43.28 42.55 41.38 42.65 42.67 42.82 43.94 44.17 43.20 42.69 42.70 42.16 41.32 40.61